GFSMW_850_thetae_024.txt.gz
Theta_e
329 329 328 327 326 332 334 333 331 330 328 325 325 325 324 321 320 318 316 314 313 312 311 312 312 311 311 310 309 306 304 304 303 303 303 303 302 301 301 302 301 301 302
329 331 331 330 330 334 334 333 330 330 327 326 326 325 322 320 318 316 313 312 312 312 311 311 310 310 309 306 303 303 303 304 303 302 301 302 301 300 300 300 299 298 298
331 331 332 332 332 333 333 332 329 328 328 327 324 323 321 318 316 314 313 312 312 311 310 309 307 304 304 304 303 303 303 303 302 300 300 300 300 300 299 298 298 297 296
330 331 332 333 333 332 331 330 328 328 326 324 323 321 318 316 316 314 313 312 311 309 307 304 303 303 303 304 303 303 303 302 301 300 300 299 298 297 296 296 295 294 294
329 331 332 332 331 330 330 330 327 325 324 319 319 319 318 316 314 313 310 307 306 304 301 301 300 299 298 300 301 302 302 302 300 299 299 297 296 296 295 294 294 293 293
330 331 332 331 330 330 327 325 323 319 318 318 318 317 315 313 311 308 307 306 302 300 299 298 297 295 298 299 300 301 301 301 300 299 298 296 295 294 294 294 293 293 293
330 331 330 328 326 325 323 321 317 317 317 317 316 315 313 310 308 310 308 304 299 298 297 296 295 296 297 299 300 301 301 299 298 298 296 295 294 294 294 293 293 293 292
329 327 326 324 322 320 319 317 317 316 314 312 310 309 308 311 311 308 300 297 298 296 296 296 295 295 297 299 300 300 298 298 298 297 296 295 294 294 294 293 293 292 291
326 323 322 321 320 319 318 317 316 314 311 309 308 308 311 311 304 300 298 298 296 296 296 296 295 296 296 297 298 296 298 298 297 297 296 295 294 294 293 293 292 291 291
324 321 320 319 319 319 318 316 315 313 310 307 308 310 309 304 300 299 300 299 297 296 296 296 296 296 296 295 296 297 297 296 296 296 296 295 294 293 293 292 291 290 290
323 321 320 319 319 319 317 316 315 311 307 307 309 308 305 301 300 300 300 299 297 297 296 296 295 295 296 296 296 296 295 295 295 295 295 294 293 292 292 291 290 289 289
323 321 320 320 319 318 317 316 313 309 308 308 307 305 301 301 301 300 300 299 298 297 296 295 295 295 295 295 294 293 294 293 294 293 293 293 292 291 290 289 288 288 287
324 323 321 320 319 318 317 314 311 308 308 306 304 302 301 301 300 300 300 299 298 297 296 295 295 295 295 295 295 294 293 293 293 292 292 291 291 290 289 288 287 286 284
324 323 322 321 319 318 316 314 310 308 307 305 304 301 301 301 300 300 300 298 297 297 296 295 294 294 294 294 294 294 293 292 292 292 291 290 289 288 287 286 285 283 283
322 322 323 321 319 318 316 313 310 308 307 306 302 301 300 300 300 300 299 298 297 296 295 295 294 294 294 294 294 293 291 291 291 290 290 289 287 286 285 284 284 283 282
318 320 322 322 320 318 316 314 310 308 308 305 302 301 300 300 299 299 298 297 295 295 295 295 294 294 293 294 293 292 289 289 289 289 288 287 286 285 284 284 284 283 282
317 318 320 321 320 318 316 314 310 307 307 305 302 301 300 299 298 297 295 295 294 295 295 294 294 293 293 293 292 290 288 287 287 287 287 286 285 285 284 284 283 280 281
317 317 318 319 318 317 314 311 308 306 306 303 301 299 299 298 295 294 293 294 294 294 294 294 293 293 292 292 291 290 288 287 287 287 286 285 284 284 283 282 279 279 279
315 315 316 317 317 315 314 310 307 306 303 301 299 298 296 295 293 293 293 293 293 293 294 294 293 292 291 291 291 290 288 287 286 286 285 285 284 283 283 281 279 278 278
315 315 315 316 315 314 311 307 305 302 300 300 296 296 294 294 293 293 293 293 293 293 293 293 292 291 291 290 290 289 288 286 285 285 284 284 284 283 283 280 279 279 279
315 315 315 313 311 308 304 302 300 299 296 297 295 293 293 292 292 292 292 293 292 293 293 293 292 291 290 290 289 287 287 286 285 284 283 283 283 283 281 280 279 280 279
315 313 310 306 301 300 300 299 298 296 296 293 293 294 291 291 292 293 292 291 292 293 293 293 292 291 290 289 288 288 287 286 285 284 283 282 282 281 281 281 280 280 279
308 304 304 301 298 298 298 300 295 294 293 294 293 290 291 292 292 291 290 290 290 292 292 292 292 291 290 289 289 289 287 286 285 284 283 282 282 281 281 281 281 281 280
300 300 299 298 298 296 294 294 296 294 294 292 290 291 291 290 290 291 291 291 291 289 291 292 291 290 290 289 289 288 287 286 285 284 283 283 282 282 282 281 281 281 280
299 299 298 298 298 298 297 295 294 293 290 290 290 290 290 290 291 291 291 291 290 289 289 290 290 290 290 289 288 287 286 286 286 285 284 283 282 282 282 281 281 281 280
298 298 298 298 298 295 293 292 292 290 290 290 290 290 290 290 290 291 291 290 290 289 290 289 289 289 289 289 287 286 285 284 284 284 283 283 282 283 282 281 281 281 280

GFSMW_850_thetae_027.txt.gz
Theta_e
325 325 325 326 330 331 330 329 328 327 328 325 320 324 324 322 320 319 317 312 312 312 312 312 312 311 311 311 310 306 301 301 300 302 301 300 297 300 300 299 300 300 299
328 327 327 326 331 332 331 331 331 329 328 324 321 325 323 320 319 319 315 312 312 312 312 311 310 309 306 303 301 301 300 301 303 303 302 300 299 299 300 300 299 298 297
329 328 328 330 332 333 333 331 331 329 326 326 326 325 321 320 319 317 313 312 312 311 310 308 306 304 303 302 302 301 300 303 302 302 300 300 299 298 298 297 296 295 295
329 330 330 329 332 333 334 331 330 326 325 326 327 324 322 320 318 315 313 312 311 309 308 306 304 302 301 301 300 301 300 302 302 302 300 299 299 298 296 295 294 294 294
330 331 331 332 331 333 331 331 327 328 328 328 326 322 320 317 316 314 312 311 309 310 309 305 300 299 297 295 295 297 301 301 302 301 300 299 298 297 295 294 294 294 293
331 331 332 332 332 331 330 328 328 326 325 323 323 319 319 316 314 313 313 310 310 308 302 299 297 295 294 294 295 298 300 301 301 301 300 298 296 296 295 294 294 293 293
330 331 332 332 331 329 328 330 327 324 324 319 319 318 317 316 315 313 310 312 307 300 297 295 295 294 294 294 297 299 299 300 299 297 298 297 296 295 294 294 294 293 292
330 331 332 331 330 329 328 325 324 323 320 319 318 317 316 314 312 310 311 309 301 297 295 294 294 294 293 294 297 298 298 297 298 298 297 297 296 296 294 294 293 293 293
331 330 329 329 328 327 325 323 320 318 317 317 317 316 315 311 310 311 307 299 297 296 295 294 294 293 294 294 294 296 297 297 297 296 296 296 296 295 295 294 293 292 291
329 328 327 326 325 324 322 319 317 317 316 315 313 311 309 310 308 303 300 298 298 296 295 294 294 294 294 295 295 295 295 295 295 295 294 294 295 294 293 292 292 291 290
327 325 324 322 321 320 319 317 317 316 315 312 310 308 309 306 303 301 299 299 299 298 297 296 295 295 295 295 295 295 295 294 293 293 293 293 293 293 292 291 290 290 289
326 323 321 320 319 319 319 318 316 315 313 311 308 308 307 303 301 300 300 300 299 299 298 297 296 294 294 295 295 294 295 294 293 293 293 293 292 291 291 290 289 288 287
325 322 320 319 319 319 319 318 316 315 312 310 308 308 306 301 301 301 300 300 299 299 297 297 296 294 294 294 294 294 294 293 292 292 292 292 291 290 289 288 287 287 286
325 323 321 320 319 319 319 318 317 316 312 309 308 308 304 302 301 301 300 300 299 298 297 297 296 295 294 294 294 294 294 293 292 291 291 290 289 288 288 287 286 285 284
323 323 322 320 320 319 318 318 317 315 312 308 308 306 303 301 301 300 300 299 298 297 296 295 295 295 294 294 294 293 293 293 290 291 290 289 288 287 287 285 285 284 284
317 317 322 321 321 319 318 317 317 314 310 308 307 306 302 300 300 299 299 298 297 295 294 295 295 295 294 294 293 292 292 289 287 287 287 288 287 286 285 285 284 284 282
317 317 319 321 321 320 318 317 316 312 309 308 307 302 301 300 299 298 297 295 294 293 294 294 294 294 294 293 293 292 291 290 288 287 286 286 286 285 285 284 284 282 280
316 316 316 317 319 319 318 317 314 310 307 307 304 301 300 298 297 296 294 294 293 294 293 293 293 294 293 293 292 292 291 290 288 287 286 285 285 284 284 284 283 281 280
314 314 315 316 317 317 316 315 309 307 306 303 301 300 297 296 295 295 294 293 293 293 292 293 294 293 293 292 291 291 291 290 288 286 285 285 284 284 283 283 283 281 280
315 315 315 315 316 314 312 310 306 304 301 299 297 296 296 297 295 293 293 293 292 292 293 293 293 293 293 292 291 290 289 288 287 286 285 284 283 283 283 282 281 280 280
315 314 314 313 309 306 307 304 300 299 297 297 298 299 299 294 293 292 292 293 292 292 291 292 293 293 292 292 290 289 289 288 287 286 284 283 283 283 282 281 280 280 280
312 311 311 308 303 302 303 302 301 299 299 300 300 298 294 293 291 292 292 292 291 290 290 292 292 292 292 291 290 289 288 288 288 286 285 284 283 282 281 281 281 281 280
309 306 306 304 302 301 300 300 301 301 299 297 294 294 290 291 292 292 290 290 290 291 290 290 291 291 291 291 290 289 289 289 288 286 285 284 283 282 282 281 281 281 281
304 302 302 301 300 299 300 299 298 297 295 294 291 290 290 290 290 290 290 291 291 291 291 289 289 290 291 290 290 289 289 288 287 286 285 285 284 283 282 282 281 281 281
300 299 299 298 298 298 298 297 295 293 291 290 290 290 290 289 290 290 290 290 291 291 290 289 289 289 288 289 290 290 289 287 286 285 285 285 284 283 282 282 282 281 281
298 298 298 298 296 295 294 292 291 290 290 289 290 290 290 290 290 290 290 290 290 288 288 289 289 289 290 289 289 288 288 287 286 284 284 284 283 283 282 283 282 281 281

GFSMW_850_thetae_033.txt.gz
Theta_e
329 328 326 326 326 329 329 328 327 326 324 325 326 328 327 323 321 322 321 320 320 320 317 312 311 311 311 310 308 305 300 299 297 296 297 298 298 299 298 299 298 297 298
329 330 329 328 327 327 328 329 327 325 325 325 325 326 325 323 322 321 320 318 316 313 311 311 311 311 310 309 307 302 299 297 296 296 297 300 299 299 298 298 297 296 295
330 330 329 329 329 327 323 322 321 321 324 325 325 326 324 322 322 321 321 317 313 312 311 311 311 310 310 309 308 301 298 295 295 297 299 300 299 299 298 297 297 295 295
328 330 330 328 328 327 325 323 319 319 320 323 326 326 324 322 322 323 320 317 314 312 311 312 310 310 307 306 301 297 295 294 295 298 301 301 300 299 298 298 297 296 296
326 328 329 328 328 329 327 325 324 323 322 323 327 327 324 322 322 322 318 316 314 312 312 311 308 304 304 302 296 294 293 294 296 299 300 300 299 298 297 297 296 295 294
325 326 326 327 328 329 328 327 328 328 326 326 327 327 323 321 322 320 317 316 314 313 312 308 305 303 303 295 295 293 293 294 297 298 298 297 297 297 297 296 296 295 295
325 324 325 325 327 327 328 328 329 328 328 328 329 327 324 321 323 319 318 316 314 313 308 304 302 306 299 298 294 293 292 293 295 297 296 296 296 295 295 295 295 295 295
324 325 325 325 325 326 327 329 329 329 328 328 327 325 323 324 323 321 318 315 313 308 303 301 304 300 295 294 293 292 293 293 295 295 295 295 295 294 294 294 295 294 293
324 326 327 327 328 329 329 329 329 329 327 325 325 326 326 325 324 320 315 313 307 304 305 307 297 297 295 294 293 292 292 293 295 295 295 294 293 293 293 292 294 293 292
325 326 327 328 329 330 331 329 329 328 326 326 325 324 325 322 320 318 314 311 310 309 308 299 300 298 296 294 294 293 292 294 294 294 293 294 293 293 292 292 292 292 292
326 327 328 329 330 331 331 329 328 327 327 326 325 323 320 318 315 314 311 309 309 307 300 303 300 298 295 295 295 293 293 293 293 294 294 293 293 292 291 291 291 290 290
325 326 329 330 330 330 330 329 328 328 327 325 323 320 318 315 314 312 310 308 305 301 302 300 299 298 295 295 294 294 294 293 293 294 293 293 292 292 291 291 290 289 288
327 329 330 330 330 330 330 329 328 327 325 323 321 319 316 315 314 310 309 308 303 302 301 299 298 296 295 294 294 294 295 294 293 293 292 292 292 290 291 290 289 287 287
326 328 329 330 330 330 328 327 326 324 322 320 319 316 316 315 313 310 308 303 301 301 299 298 297 295 295 294 295 295 294 294 293 292 292 292 289 289 289 288 287 286 285
325 327 327 328 328 328 327 325 324 322 321 318 317 317 315 313 310 307 303 301 300 298 297 296 295 296 294 294 295 294 294 293 293 292 291 290 288 287 286 285 285 285 284
322 324 325 325 325 325 324 323 322 321 319 317 317 315 310 306 304 302 301 299 297 296 295 299 299 296 294 294 294 293 293 293 293 292 291 290 289 289 287 285 284 284 284
317 317 318 319 319 319 319 319 319 319 317 316 314 310 307 305 303 301 299 297 297 299 299 299 296 293 293 293 293 293 293 293 292 291 291 290 289 288 286 285 284 284 283
314 315 315 316 317 318 318 318 317 316 314 312 309 307 305 302 298 297 297 298 298 299 300 295 293 292 291 291 293 293 293 292 292 291 290 290 288 286 285 284 284 283 283
314 314 314 314 315 317 318 317 316 314 311 307 305 301 298 297 297 298 298 299 300 298 294 292 291 291 290 291 292 292 292 292 291 291 290 289 287 286 284 284 283 283 282
314 314 314 314 314 314 315 314 311 309 306 302 299 298 298 298 299 299 300 299 296 293 291 291 290 290 289 289 290 292 292 292 291 290 289 288 287 287 285 283 283 282 281
312 312 311 311 310 309 309 309 306 303 300 299 299 300 300 300 300 297 293 292 291 291 290 290 289 289 289 289 290 292 291 291 291 290 290 288 288 287 285 284 283 282 281
307 307 307 306 303 302 303 302 302 302 302 301 301 301 298 294 292 291 291 291 291 290 289 289 289 289 289 289 288 290 290 289 290 290 290 288 288 288 286 284 283 282 281
305 303 304 302 301 300 300 300 300 300 299 296 294 292 290 290 290 290 290 290 289 289 289 289 289 289 289 289 289 289 288 288 289 290 289 289 288 288 286 285 284 283 282
301 301 300 300 300 299 298 297 294 293 292 290 290 289 289 289 289 289 289 289 289 289 289 289 289 289 289 289 288 287 288 289 289 288 289 289 288 288 286 285 284 284 282
299 299 299 298 296 293 292 291 291 291 290 290 290 290 290 290 290 290 289 290 290 290 290 290 290 290 289 289 289 288 287 287 288 289 288 288 288 287 286 286 285 284 283
298 296 294 293 292 292 292 292 291 291 291 290 290 290 290 290 290 290 290 291 291 291 291 291 290 290 289 289 290 288 287 287 288 288 288 288 288 287 287 286 284 283 283

GFSMW_850_thetae_036.txt.gz
Theta_e
323 321 321 322 324 327 326 325 325 324 323 323 324 324 326 327 327 326 323 320 320 320 322 321 317 312 311 310 308 304 300 299 297 296 296 297 298 298 298 298 298 298 297
327 324 323 322 323 324 325 325 326 326 325 324 324 325 325 326 326 323 321 321 320 320 319 316 312 311 310 308 306 303 300 297 296 295 296 297 298 299 298 298 298 297 297
329 327 326 325 324 323 323 325 325 325 325 326 325 325 326 326 323 321 321 321 317 316 314 312 311 311 308 307 305 300 296 297 296 294 296 298 299 299 298 298 297 297 296
329 329 328 328 327 326 325 325 324 324 326 325 324 324 325 325 324 322 321 319 315 313 311 311 311 309 307 305 304 299 300 301 296 294 295 297 299 300 299 297 297 297 296
328 328 328 328 328 327 327 326 326 325 327 325 325 325 326 325 324 322 320 318 315 313 312 311 310 308 307 306 307 306 308 304 294 293 295 297 298 297 297 297 296 295 295
327 327 327 328 329 328 328 327 326 325 325 325 325 325 326 326 323 322 320 317 315 315 313 311 309 305 305 308 310 312 299 294 293 293 294 296 296 296 296 295 294 294 294
328 326 327 326 327 328 328 328 327 325 323 323 324 325 325 326 323 322 321 318 317 316 313 311 310 304 305 311 307 296 295 293 292 293 295 295 295 294 294 294 294 294 293
325 326 326 326 326 327 328 328 328 325 325 324 325 324 325 326 323 322 321 319 317 316 313 311 305 307 311 309 300 295 294 292 292 294 295 295 294 294 293 293 294 293 293
324 326 326 325 325 326 325 326 327 326 326 326 327 327 327 326 323 321 320 319 318 316 314 310 309 308 306 301 296 294 293 292 292 293 294 293 293 293 293 292 293 293 292
321 323 323 324 325 325 325 324 325 326 327 327 327 326 326 324 324 323 322 321 318 316 311 308 310 303 301 298 295 295 294 293 292 293 293 294 293 292 293 292 292 291 291
322 323 324 324 325 326 325 326 328 329 328 329 327 326 325 325 322 321 321 320 318 313 307 309 305 302 299 296 295 296 294 294 294 293 292 293 292 292 292 291 291 291 290
323 324 325 326 326 326 327 328 328 325 326 324 325 325 325 322 321 320 319 317 314 308 307 302 301 299 298 295 297 296 294 294 294 294 293 292 292 291 292 290 289 289 289
322 324 326 326 327 328 328 329 327 326 325 324 324 323 322 321 320 318 316 313 308 305 301 301 300 298 296 296 297 294 294 294 294 294 293 292 291 291 289 288 289 288 288
322 323 325 326 328 329 328 328 326 326 325 324 323 322 319 318 316 314 310 307 304 304 300 300 299 297 296 299 295 294 294 295 294 293 293 292 291 290 289 288 287 286 286
322 323 325 327 327 328 328 327 326 326 325 323 320 318 317 315 312 311 309 304 301 300 299 297 296 296 299 299 297 294 295 294 293 293 293 292 291 290 289 287 287 285 284
321 323 323 323 323 324 325 325 325 324 322 320 318 316 314 311 310 308 306 302 301 299 298 296 297 299 299 295 294 294 294 293 293 293 292 292 291 290 289 288 287 285 284
317 317 317 318 318 318 318 318 318 318 318 317 316 313 310 308 307 303 301 300 299 298 296 297 299 298 298 294 293 293 292 292 293 293 292 291 291 290 289 287 285 284 284
314 314 314 314 314 314 315 317 317 316 315 314 311 309 308 306 303 300 298 298 297 297 298 299 299 296 293 291 291 291 291 292 292 292 292 291 290 290 288 286 285 284 284
313 313 313 313 314 314 315 316 315 313 311 309 307 305 303 301 298 297 298 297 299 299 299 298 294 292 291 290 289 289 290 291 292 292 291 291 290 289 288 286 285 284 283
313 313 313 313 313 313 312 312 311 309 307 305 303 300 299 298 298 299 299 300 299 298 293 292 291 291 290 289 289 289 289 290 292 291 291 291 290 289 288 287 286 284 283
311 310 310 310 309 308 307 308 305 303 301 300 300 299 299 300 300 299 296 291 291 291 291 291 290 289 289 289 289 289 288 289 291 290 289 290 290 289 288 287 287 286 283
307 307 307 305 303 302 303 302 301 300 300 301 301 300 296 293 291 290 290 290 290 290 290 290 289 289 289 289 289 289 289 288 289 290 290 289 289 290 288 288 287 286 284
305 303 303 302 300 300 300 300 299 298 296 294 292 290 290 289 289 289 289 289 289 289 289 289 289 289 289 289 289 289 288 288 287 288 288 288 288 288 289 288 288 286 285
302 301 300 300 299 298 298 297 294 293 291 290 290 290 290 290 290 290 289 289 289 289 289 290 290 290 290 290 290 289 289 289 288 287 287 287 288 288 288 288 287 286 285
299 299 299 298 296 294 293 292 291 291 290 290 290 290 290 290 290 290 289 290 290 290 290 290 290 290 290 290 290 290 290 289 289 288 287 287 287 288 288 287 286 287 286
298 298 296 295 294 292 292 291 291 291 290 290 290 289 289 288 287 286 286 285 284 284 284 284 286 287 287 288 288 289 289 289 288 288 287 287 287 288 288 288 287 287 286

GFSMW_850_thetae_039.txt.gz
Theta_e
322 322 323 323 323 321 322 326 326 323 324 321 315 322 323 321 324 324 324 324 323 320 320 322 322 321 317 311 310 308 306 302 298 297 298 298 297 298 298 298 298 298 298
326 323 321 322 322 322 323 326 326 324 324 322 319 322 325 325 326 325 325 324 321 320 320 321 321 318 311 311 308 308 303 298 298 299 300 300 299 298 298 298 299 297 297
328 326 323 320 321 322 324 326 325 324 324 324 323 323 324 324 325 325 325 322 320 320 320 320 317 312 311 309 308 305 303 304 301 300 299 299 300 297 298 298 297 297 296
327 327 326 323 323 321 322 324 326 325 325 326 326 325 324 324 324 325 324 321 320 319 318 316 313 311 310 308 305 307 304 307 306 305 297 295 295 299 299 298 297 295 294
328 327 327 327 326 325 323 323 324 325 326 325 326 325 326 325 325 325 322 321 319 318 316 313 311 311 309 306 306 309 310 310 306 296 295 294 294 295 297 296 296 295 295
328 328 328 328 328 328 327 326 325 325 326 324 324 326 326 325 325 325 323 322 319 317 315 312 312 311 308 305 307 310 312 304 298 297 294 294 296 297 297 296 296 295 294
327 328 328 327 327 327 327 328 327 327 326 326 326 326 326 326 325 325 324 323 321 318 316 314 313 310 307 305 309 311 307 298 295 295 294 293 294 294 295 295 295 295 294
324 327 328 327 326 327 326 327 329 327 327 324 324 325 325 325 326 325 325 323 321 320 316 314 311 308 305 307 309 306 301 294 297 294 292 293 293 293 293 294 294 294 294
318 320 323 327 327 326 326 326 327 328 328 323 324 325 325 324 324 324 324 321 320 319 316 313 310 306 305 309 306 300 295 297 298 295 293 292 293 293 292 293 293 294 294
319 321 322 323 324 326 324 325 325 327 327 326 326 326 326 326 325 325 324 322 321 318 316 312 308 304 308 307 304 296 296 300 296 293 292 292 293 293 292 292 292 292 291
321 321 321 322 323 323 324 324 324 325 325 325 326 326 326 325 325 323 322 322 321 317 315 310 304 306 304 299 296 296 299 298 294 294 294 293 293 293 291 291 292 292 291
321 322 322 323 324 324 324 325 325 325 325 325 325 321 322 322 322 321 321 321 320 318 312 305 304 304 300 298 297 297 300 295 294 294 294 293 293 292 291 291 291 290 290
321 322 323 324 325 325 325 326 327 326 326 325 324 323 322 322 322 323 320 319 318 315 310 303 303 304 299 297 296 298 299 295 295 294 294 294 293 292 292 290 289 289 288
319 322 324 325 326 326 327 327 327 326 325 325 324 324 323 323 321 320 318 316 315 310 304 302 301 299 297 297 296 299 299 295 295 295 294 293 293 292 291 290 289 289 288
320 322 323 325 326 327 327 328 327 327 326 325 324 323 320 319 317 316 313 309 305 301 301 300 299 297 297 296 299 299 295 294 294 295 294 293 293 292 291 290 290 288 287
320 321 322 323 323 323 323 323 322 322 321 320 318 318 316 314 313 310 306 304 302 301 299 297 296 296 299 299 298 297 294 293 293 294 293 293 293 292 291 290 289 289 287
316 316 316 316 317 317 317 317 317 317 317 317 317 315 314 311 309 306 306 304 301 298 297 298 300 300 299 298 297 293 292 292 291 292 292 293 293 292 291 290 290 289 286
313 314 314 313 313 314 314 315 316 316 315 314 313 311 309 308 306 304 302 300 299 298 301 300 299 298 298 296 292 291 290 290 290 290 292 292 292 292 291 290 289 288 286
312 313 313 313 314 314 314 314 314 313 312 310 308 307 305 304 303 301 302 298 300 299 298 299 299 297 293 291 291 290 289 289 289 289 290 292 291 291 291 290 289 288 287
312 312 312 312 312 312 312 312 311 309 307 304 303 302 300 299 299 298 299 300 300 299 296 294 292 291 291 290 289 289 289 289 289 288 288 291 291 290 290 290 289 288 287
310 310 310 311 310 309 308 308 306 304 302 301 300 299 299 300 300 297 293 291 291 291 291 290 290 290 290 289 289 289 289 289 289 289 288 288 291 290 289 289 289 289 288
308 308 308 307 305 304 304 303 302 300 300 301 301 299 295 292 291 290 290 290 290 289 289 289 289 289 289 289 289 289 289 289 289 289 288 288 288 289 289 289 289 289 288
306 304 305 304 302 301 301 301 300 299 297 295 293 291 290 290 290 289 289 289 290 290 290 290 290 290 290 290 290 290 290 290 290 289 288 289 288 287 288 288 288 288 287
303 302 302 301 299 299 299 298 295 293 291 291 290 290 290 290 290 289 289 289 288 288 287 287 286 286 286 287 287 287 287 289 290 290 289 289 288 287 287 287 288 288 287
300 300 300 298 296 294 294 292 292 291 290 290 290 290 289 288 287 286 285 284 283 282 282 282 283 283 284 284 284 285 286 286 287 287 288 288 288 288 287 286 287 287 287
298 298 297 296 293 293 292 291 291 290 290 289 287 287 286 285 284 284 283 283 282 281 281 281 281 282 282 282 282 283 283 284 285 286 286 287 288 287 287 286 287 287 287

GFSMW_850_thetae_042.txt.gz
Theta_e
325 328 329 329 328 328 326 326 326 326 326 326 324 321 320 322 325 324 325 323 323 323 323 323 323 322 320 318 315 311 309 308 304 307 307 306 304 303 302 301 300 300 299
327 325 328 328 328 327 328 327 327 327 327 328 327 322 323 322 324 322 322 324 323 324 321 321 321 322 320 318 311 310 308 305 309 308 307 310 306 303 302 302 301 300 299
328 327 325 326 328 327 327 327 328 330 328 329 327 324 325 327 325 324 325 324 324 324 321 321 321 321 319 314 311 309 308 307 308 309 306 306 306 304 303 302 302 300 299
328 328 327 326 325 327 327 327 328 330 329 329 328 326 324 325 326 324 324 324 324 322 321 321 321 320 317 312 311 310 308 310 311 311 308 301 302 302 303 303 301 300 299
327 328 328 328 327 326 327 327 328 330 329 328 328 328 327 326 327 324 323 324 324 321 320 320 319 317 314 312 310 309 308 312 312 308 303 303 302 302 301 300 300 299 299
327 327 328 329 329 329 328 326 326 327 329 329 327 327 326 328 326 324 324 324 323 321 320 317 316 314 312 311 309 306 308 311 307 302 301 301 302 301 300 300 300 299 298
328 328 328 329 330 331 331 328 326 326 326 325 322 323 324 325 325 324 324 325 324 322 320 317 315 312 311 310 307 306 309 306 303 299 301 301 300 299 299 298 298 298 297
326 328 329 329 330 331 333 330 328 328 326 325 325 325 324 325 326 324 323 325 325 322 321 318 316 313 311 308 305 306 308 300 295 299 299 299 300 299 298 297 297 297 296
322 324 327 329 329 331 333 333 332 330 329 327 325 322 321 323 325 324 325 325 324 323 321 319 316 314 312 306 304 306 299 295 298 300 299 299 298 297 297 296 296 296 296
322 322 323 325 327 329 331 332 332 332 332 329 323 324 324 325 326 325 325 325 324 323 321 319 316 313 308 305 305 306 297 298 300 300 299 298 297 296 296 296 295 295 295
324 324 324 325 326 327 329 330 330 330 331 329 328 327 326 326 327 325 324 323 322 321 321 319 315 313 308 304 305 298 298 299 300 299 297 296 296 296 296 295 295 294 294
323 325 327 327 326 325 328 328 328 329 330 330 328 325 326 325 323 323 323 322 321 321 321 318 315 310 304 304 302 297 296 298 300 298 297 297 296 296 295 295 294 294 293
323 326 328 328 328 327 327 327 326 328 327 326 325 325 324 323 323 323 322 322 321 320 319 314 309 302 302 300 298 298 296 300 298 298 297 297 296 296 295 294 294 293 292
319 325 327 328 328 327 326 327 327 327 327 327 326 326 325 324 323 322 321 320 319 318 317 311 305 302 300 300 297 297 299 300 299 297 296 296 296 296 295 294 294 293 292
322 325 327 327 327 327 326 326 327 327 326 326 325 324 323 321 320 319 318 317 315 313 312 309 303 301 300 298 301 299 299 299 297 297 296 296 296 295 294 293 293 292 292
321 322 324 324 324 324 323 325 325 324 322 321 320 319 319 318 316 315 313 312 309 306 302 304 300 303 298 299 301 299 299 298 295 295 295 295 295 294 293 293 292 291 291
317 317 317 317 318 318 318 318 318 317 317 317 316 316 315 314 312 310 308 306 304 302 303 300 302 299 298 300 299 298 297 294 294 294 294 294 293 293 293 293 293 291 291
313 312 313 314 314 314 314 315 315 315 315 314 313 312 311 309 307 306 305 303 302 302 300 298 298 300 299 299 298 297 293 292 292 292 292 293 293 293 293 292 292 291 290
310 311 311 312 313 313 314 313 313 311 309 307 307 306 304 303 302 301 301 300 299 299 299 299 299 298 297 295 292 291 291 291 291 291 291 291 292 292 292 292 292 291 290
310 311 311 311 312 312 311 310 308 307 305 304 303 302 301 301 300 300 301 300 300 298 295 294 294 294 291 291 290 290 290 291 291 291 291 291 290 289 289 291 291 291 290
309 309 308 309 309 308 307 305 305 304 303 302 302 302 302 302 300 296 294 293 293 292 292 290 290 291 291 290 289 289 289 290 290 291 291 291 291 290 289 289 291 290 290
306 305 306 305 305 305 306 306 305 302 302 302 302 299 294 292 291 291 290 290 291 291 292 291 292 292 292 291 290 290 290 290 290 290 290 290 290 290 288 288 288 289 289
304 304 304 304 302 302 302 303 303 302 301 298 294 292 291 290 290 290 290 292 292 291 290 289 289 289 288 287 286 285 286 287 286 287 287 288 289 289 288 288 288 288 288
303 302 301 301 300 298 299 301 299 296 294 292 291 290 290 290 289 288 287 287 286 286 286 286 286 286 286 286 285 283 282 282 283 285 285 286 286 287 288 288 288 288 287
301 300 299 298 297 299 299 296 293 292 291 290 290 289 288 287 286 286 285 284 283 283 282 282 282 283 283 281 280 280 281 281 281 282 282 283 285 287 287 287 288 287 287
299 298 296 297 297 296 294 292 291 290 290 289 287 287 286 285 284 284 284 283 282 281 281 280 279 279 279 279 278 279 279 280 281 282 284 284 284 285 287 288 287 286 286

GFSMW_850_thetae_045.txt.gz
Theta_e
325 328 325 324 324 324 324 324 323 322 323 324 324 322 320 320 322 324 326 327 327 324 324 325 324 323 322 321 319 317 313 311 309 310 313 312 310 309 306 305 304 303 302
328 328 329 326 327 326 326 325 325 325 326 327 327 324 322 320 322 324 326 325 326 326 324 325 324 322 321 320 318 315 313 312 309 312 313 314 312 309 307 305 304 304 303
325 327 328 328 327 326 326 326 326 327 327 328 327 326 323 322 322 324 326 325 326 326 325 325 323 322 320 318 318 316 312 311 311 311 313 311 311 308 308 306 306 305 303
326 325 326 329 329 328 328 328 328 328 327 327 328 327 323 325 327 325 325 327 327 326 325 324 322 320 319 318 316 314 311 310 311 312 312 310 307 306 307 307 306 304 303
326 327 325 324 328 329 329 329 329 328 329 329 328 328 327 326 327 327 327 327 327 325 323 322 320 320 319 316 315 311 310 310 309 312 310 307 307 306 306 306 305 304 302
326 327 327 326 325 326 328 329 329 329 329 330 329 330 329 327 327 327 327 326 325 322 322 321 321 321 319 315 313 310 309 308 308 310 306 306 305 306 305 304 303 303 302
326 326 327 328 328 327 327 328 328 327 329 330 328 328 328 325 324 327 328 325 324 322 321 321 322 320 319 314 312 310 309 306 307 306 305 304 304 304 303 302 302 301 301
327 327 326 327 328 329 330 330 330 329 329 331 330 319 322 322 321 321 323 325 324 323 321 320 322 320 316 314 311 310 306 306 308 302 302 303 303 302 302 301 300 299 300
324 326 327 327 328 330 332 332 332 332 331 330 329 324 323 323 322 322 324 325 324 322 322 321 321 318 315 312 311 307 305 306 303 302 302 302 302 301 301 300 299 298 298
324 324 326 327 328 330 331 333 335 334 333 331 330 326 325 323 321 321 324 324 324 322 323 322 320 318 314 311 310 304 305 304 300 301 301 301 302 300 299 299 298 297 297
325 325 325 326 327 329 331 333 336 335 334 332 330 329 325 324 324 324 324 325 323 322 322 321 318 314 312 312 304 303 302 300 300 300 301 300 299 299 298 298 298 297 296
323 325 327 328 328 329 329 332 334 334 334 333 332 331 326 325 325 326 326 325 322 321 320 321 319 313 313 308 303 302 299 299 299 301 301 299 299 298 298 298 297 296 296
322 325 328 330 330 330 331 332 332 332 332 332 331 330 329 327 328 326 325 324 322 321 320 318 314 312 309 304 301 302 299 300 302 301 300 299 299 298 298 297 297 296 295
320 324 327 329 330 331 331 331 332 332 332 331 330 328 327 324 324 323 322 321 320 318 316 315 313 308 306 301 302 300 301 301 300 300 299 298 298 298 297 297 297 296 295
320 322 327 328 330 330 331 331 328 327 326 326 325 324 322 320 319 317 316 317 318 316 315 313 309 306 305 303 303 302 298 299 300 299 299 298 297 298 297 297 296 295 294
323 325 327 329 330 329 328 326 325 323 322 321 319 317 316 315 314 314 315 313 311 310 309 308 307 305 303 301 302 299 299 299 299 298 297 297 296 296 295 295 294 294 294
323 324 326 327 327 325 324 322 320 318 317 315 313 312 313 314 313 312 310 308 306 303 301 302 301 300 300 299 298 298 299 299 298 297 295 295 294 294 294 294 294 294 293
321 320 320 320 321 320 318 316 315 314 312 311 310 311 311 312 310 308 306 304 303 303 303 301 299 299 299 299 299 299 297 295 294 294 294 294 293 293 293 293 294 294 293
317 317 316 316 315 315 314 313 312 311 310 309 308 308 307 306 304 303 303 302 301 301 301 301 300 299 298 296 295 292 291 293 293 293 293 293 293 293 292 292 292 292 292
314 313 313 313 313 312 312 311 310 309 307 307 306 305 304 304 303 302 302 301 299 297 296 297 297 296 295 295 294 292 292 291 291 292 292 292 292 292 292 291 291 290 290
312 312 312 312 311 311 310 309 308 307 306 305 304 304 303 303 301 299 298 297 297 296 296 293 294 294 294 293 293 292 291 290 290 289 289 289 290 291 291 291 291 290 289
310 311 311 310 310 309 309 307 306 304 304 304 303 300 297 295 296 296 295 294 295 295 295 294 294 293 293 292 292 290 288 287 285 285 285 286 287 288 287 287 289 290 289
310 310 310 309 308 307 306 305 303 303 302 299 296 295 295 294 294 295 294 294 293 292 291 290 290 290 289 288 288 287 285 283 282 281 281 281 281 281 284 285 286 287 288
310 309 308 307 306 305 304 302 301 299 297 296 296 294 294 293 292 291 290 290 290 288 287 287 287 287 286 286 285 282 281 280 280 280 280 280 282 282 284 285 285 287 287
309 307 306 304 303 301 300 298 297 297 296 294 293 292 290 289 289 288 287 286 286 284 283 283 282 282 282 281 279 279 279 279 278 279 280 283 285 286 286 285 286 287 287
306 305 303 301 299 298 297 296 295 295 293 291 290 289 288 288 287 287 287 285 284 283 283 282 281 280 280 279 278 278 278 278 278 279 282 282 283 283 284 285 287 288 288

GFSMW_850_thetae_048.txt.gz
Theta_e
326 325 322 320 319 318 318 316 315 314 314 314 314 321 321 321 320 321 321 324 323 321 322 323 325 323 323 323 322 321 318 316 313 311 310 313 313 313 311 309 306 305 304
327 325 323 321 322 322 320 318 318 320 320 319 321 323 322 319 321 322 323 325 326 324 323 323 326 324 323 323 322 320 319 316 313 311 313 313 313 311 311 310 307 305 305
327 326 325 324 323 324 324 324 322 321 322 322 321 325 322 321 320 322 323 325 326 324 324 324 325 325 323 322 321 320 318 314 312 310 311 313 312 311 309 308 307 305 305
327 327 328 326 326 325 325 325 325 324 322 324 326 325 325 323 321 321 325 325 324 324 324 326 325 325 323 321 321 320 318 313 312 312 311 312 311 308 307 308 307 306 305
326 329 329 329 327 327 327 325 326 325 326 325 329 327 327 323 323 323 323 325 325 324 326 326 325 324 323 321 320 318 317 313 311 312 312 311 309 308 307 306 306 306 305
326 326 327 328 329 329 328 327 326 326 328 327 325 328 327 326 325 328 327 326 326 326 326 326 324 324 322 321 318 317 314 312 310 310 310 309 307 306 306 306 305 304 304
326 327 326 325 328 329 329 329 329 329 329 329 329 327 328 327 326 326 327 327 321 322 324 323 323 322 321 320 317 315 314 311 309 309 308 308 305 305 305 304 303 303 303
326 326 327 327 325 326 329 329 329 328 329 329 330 329 322 322 320 324 326 325 323 319 322 324 322 321 321 319 317 315 313 310 311 306 307 307 304 304 305 303 302 302 301
327 327 327 328 328 326 326 327 328 330 329 329 329 327 321 321 322 326 323 323 321 320 323 324 322 321 321 318 316 314 312 311 307 305 305 303 304 304 302 302 301 300 299
325 326 327 327 328 329 328 328 328 328 329 329 329 330 327 324 323 323 323 323 322 324 324 323 323 321 319 317 315 314 312 309 304 303 302 302 302 303 302 301 300 299 299
325 325 325 326 328 328 330 330 330 330 331 331 331 330 330 326 325 323 324 324 324 324 324 322 321 320 318 315 314 311 310 304 304 301 302 302 302 302 301 299 299 298 298
323 326 326 326 326 328 330 334 333 334 334 333 333 332 330 330 327 325 323 326 324 323 322 320 320 319 318 314 312 309 306 303 302 302 303 302 301 300 300 299 299 298 298
321 324 327 328 328 329 329 331 334 335 333 333 333 332 330 328 327 327 326 323 322 321 320 320 319 317 312 310 308 305 302 301 302 302 302 301 300 300 299 299 299 298 298
321 321 326 329 330 330 331 332 333 334 333 331 330 331 330 328 327 325 323 321 321 320 319 317 315 314 312 309 308 305 302 302 302 302 300 300 299 299 298 298 298 298 298
320 321 323 329 331 332 332 332 332 332 332 330 330 331 329 324 323 321 320 320 319 317 316 316 314 312 309 308 306 302 302 301 300 299 299 299 298 298 297 297 297 297 297
320 321 322 328 330 331 331 332 331 330 328 327 326 325 322 320 317 316 314 314 315 314 313 311 309 308 306 304 302 300 300 299 299 299 299 298 297 296 296 295 295 295 294
322 324 326 330 331 331 330 327 326 325 324 323 322 319 317 316 315 314 313 311 309 308 305 304 303 302 300 300 300 298 298 298 298 298 295 294 294 294 294 294 294 294 294
323 325 328 329 329 327 325 323 321 320 319 317 315 314 314 313 312 310 309 307 305 304 303 303 301 301 301 299 298 298 297 296 292 292 294 294 293 293 293 293 293 293 293
323 324 324 325 324 322 320 318 316 314 313 312 311 311 311 310 308 307 306 304 303 302 302 301 300 299 299 297 296 295 293 292 291 291 291 291 291 292 292 292 292 292 292
320 320 320 320 318 317 315 314 313 311 310 310 309 308 307 306 305 304 303 303 302 301 298 297 297 297 295 295 295 294 293 292 291 290 289 287 286 285 286 288 290 290 290
317 317 316 315 315 314 313 312 311 309 308 307 306 306 305 304 303 302 299 299 298 298 297 296 294 295 294 294 293 292 292 290 288 286 285 284 283 282 282 282 284 286 287
315 314 314 314 313 312 311 310 309 307 307 306 306 305 303 300 299 297 296 296 295 295 294 294 294 294 294 293 292 290 287 286 285 283 282 282 282 281 281 283 283 282 282
313 313 313 312 311 311 310 308 307 306 306 304 301 298 296 296 296 296 295 295 295 294 293 292 289 290 290 289 287 286 285 283 282 282 281 281 281 281 284 285 286 286 286
312 312 312 311 310 309 308 307 305 304 301 298 297 296 295 294 294 293 292 292 291 290 289 287 287 287 286 285 284 283 282 282 281 281 280 280 281 282 283 284 284 286 287
312 312 310 309 308 307 306 304 302 300 298 297 296 295 294 292 291 290 290 289 288 286 285 285 284 283 283 283 281 281 281 280 280 279 279 281 282 281 280 281 281 283 284
311 310 309 307 306 304 302 300 299 298 296 295 294 292 290 290 289 289 288 287 286 285 284 283 282 282 281 280 280 280 279 279 279 279 279 280 279 279 278 278 279 279 281

GFSMW_850_thetae_051.txt.gz
Theta_e
325 322 320 319 319 318 318 318 319 317 316 317 315 314 316 317 315 315 314 315 315 316 319 322 323 324 321 322 322 322 321 320 317 315 312 308 309 313 314 312 311 308 306
324 322 319 318 318 318 318 318 317 317 316 314 313 314 315 318 319 315 318 321 321 321 322 320 321 323 321 323 323 322 322 320 318 315 312 311 313 313 313 312 311 308 306
324 323 319 318 318 318 317 316 315 315 314 314 314 316 321 322 320 319 320 321 321 324 323 323 320 322 321 323 323 323 322 320 319 316 313 313 313 311 311 309 309 308 306
326 324 323 321 321 320 318 318 316 315 315 316 316 317 322 324 321 318 320 322 324 324 324 322 322 323 324 323 323 322 322 320 318 314 312 310 311 312 309 309 308 307 306
326 325 324 323 323 323 323 322 319 319 319 319 320 320 321 323 322 321 319 321 322 323 323 322 322 324 324 325 323 322 321 320 316 313 312 311 311 311 308 307 306 306 306
326 326 325 325 324 324 323 323 324 323 322 318 321 323 323 325 324 323 322 320 323 324 324 321 322 323 325 324 323 322 321 319 317 314 312 312 312 309 308 308 307 306 306
326 326 326 326 326 325 324 325 324 324 324 323 323 324 326 326 326 324 323 324 323 325 324 321 323 323 323 323 323 322 320 318 315 313 311 310 310 306 308 306 305 305 306
326 326 327 327 328 328 327 327 326 325 325 325 326 326 324 325 327 323 326 326 325 325 323 320 323 323 323 322 322 321 319 317 315 312 311 309 307 307 307 304 305 305 303
325 326 326 327 327 328 328 328 327 326 326 326 326 327 326 325 326 326 327 326 324 324 325 323 320 320 323 322 321 320 319 317 315 313 312 310 305 305 303 304 304 303 302
326 326 326 326 326 326 326 328 329 328 328 329 329 329 328 327 327 323 327 323 323 324 325 322 321 322 323 322 320 319 317 315 312 311 309 304 304 302 305 305 303 301 300
324 325 326 326 327 326 326 328 329 329 329 328 328 329 329 329 328 325 322 323 324 324 323 322 322 322 321 321 319 318 316 312 309 308 303 302 302 304 303 302 302 301 300
325 323 324 326 327 327 326 326 325 325 326 328 329 329 329 327 329 328 326 324 323 324 323 322 322 321 320 320 319 317 314 309 308 306 304 302 304 302 300 300 300 300 299
323 325 323 323 325 328 329 327 327 326 323 323 329 329 328 328 328 328 327 326 326 323 323 322 321 319 318 318 317 313 309 308 307 304 302 303 301 299 300 299 299 298 298
321 325 326 324 323 325 331 331 330 329 329 329 330 330 329 330 330 328 326 325 323 323 321 321 320 319 318 315 311 309 307 307 304 301 301 301 299 299 298 298 298 298 297
321 322 326 326 326 325 330 332 333 333 332 332 332 331 329 330 328 326 325 323 321 321 320 319 318 316 314 311 308 307 306 302 300 300 300 299 298 298 297 297 296 296 296
319 319 320 328 330 330 329 331 332 332 331 330 330 330 330 331 328 325 322 321 320 319 318 317 315 313 310 307 306 303 301 300 300 299 299 298 298 294 293 294 294 294 294
320 319 320 329 331 331 331 331 330 331 331 331 330 329 329 326 324 320 319 316 316 315 314 313 310 307 305 304 302 300 300 299 299 298 297 295 293 294 294 293 293 293 293
321 322 323 328 330 330 330 330 330 328 327 327 327 325 323 323 320 316 313 313 311 309 307 304 303 302 301 300 300 299 298 297 297 294 292 293 293 292 291 291 291 291 291
322 323 326 330 330 331 330 330 327 326 324 323 321 321 320 317 314 313 310 308 306 304 303 303 302 300 300 299 298 296 296 294 292 291 291 291 290 288 286 285 284 284 284
322 323 327 328 328 328 327 326 324 322 321 320 317 314 313 312 310 308 306 304 303 302 301 300 299 299 297 296 295 294 294 293 292 291 289 286 285 284 283 282 282 282 283
322 323 324 325 325 324 323 321 319 317 315 312 311 310 309 309 307 306 304 303 302 300 298 297 296 296 295 294 294 294 293 292 290 287 285 284 283 282 282 281 282 284 285
321 320 321 321 320 319 318 316 314 312 310 309 308 307 306 306 305 303 299 299 299 298 297 297 295 294 294 293 293 292 291 287 285 284 284 283 282 281 281 281 282 283 284
318 318 318 317 315 315 314 312 311 309 309 308 307 306 305 303 301 299 298 297 297 296 295 294 294 293 292 291 290 289 286 285 283 282 282 281 281 280 281 281 280 280 281
316 315 315 314 313 312 312 311 309 308 307 306 305 302 300 298 297 296 295 295 295 295 294 294 291 290 289 288 287 285 283 283 282 282 281 280 280 280 280 280 279 279 279
314 314 313 312 312 311 310 309 308 307 305 303 299 297 296 296 296 295 294 294 294 292 290 289 287 286 285 284 283 283 282 281 281 280 280 280 280 279 279 278 278 278 278
313 313 312 311 310 309 308 307 306 304 301 298 296 295 295 293 293 292 291 290 288 287 286 285 284 284 283 282 281 281 280 279 279 279 279 279 278 278 277 277 277 276 276

GFSMW_850_thetae_054.txt.gz
Theta_e
323 321 320 320 320 320 320 320 320 319 317 316 314 314 313 317 316 315 315 316 319 320 318 322 322 321 321 321 323 322 322 322 320 318 315 313 311 309 309 313 313 312 311
324 321 320 319 319 319 319 318 319 318 316 316 317 317 317 316 315 316 315 316 316 316 315 315 317 317 318 319 322 323 322 322 321 319 316 313 311 309 310 312 312 311 310
322 321 319 319 319 318 318 319 318 317 316 318 317 316 316 314 315 314 314 315 315 315 317 319 318 319 321 320 322 322 322 322 322 320 317 312 312 312 312 313 311 309 310
322 320 319 318 318 318 318 318 319 317 316 318 316 316 315 315 316 315 314 314 314 316 320 321 323 323 321 320 321 322 322 322 322 320 319 315 313 312 311 311 311 309 309
323 321 318 317 317 317 317 317 317 318 318 316 314 314 314 316 317 317 315 315 314 319 321 321 324 323 321 321 321 322 322 323 322 321 320 313 310 311 311 311 312 309 308
324 324 320 319 317 318 317 316 314 316 317 315 314 314 316 319 319 317 320 318 316 321 322 323 322 321 322 321 322 323 323 323 322 321 318 316 315 311 311 312 309 308 310
325 325 323 321 321 320 319 317 317 316 315 315 316 318 319 318 319 322 322 321 319 319 321 322 323 322 321 321 321 322 323 322 321 320 318 316 314 312 312 311 306 307 306
326 325 325 323 323 322 322 321 320 319 318 318 318 318 319 319 319 322 325 324 322 322 321 322 324 321 322 322 323 323 322 322 321 319 318 316 312 312 311 309 307 306 304
324 325 325 324 324 324 324 323 323 323 322 321 321 319 318 320 324 325 325 326 324 323 323 323 324 320 321 322 323 323 323 321 321 319 318 314 313 311 309 307 305 303 304
324 324 325 325 325 325 324 325 324 324 324 324 323 322 322 323 324 324 325 326 324 324 325 324 324 323 321 320 321 322 321 321 319 318 314 311 312 311 305 304 303 304 303
324 324 325 325 325 326 325 325 325 325 325 325 325 325 325 325 325 325 326 325 325 324 325 323 324 324 322 320 322 322 321 319 318 316 312 310 309 305 303 303 304 303 302
324 325 325 325 326 326 327 327 327 327 327 326 324 323 326 325 325 326 326 326 320 324 323 324 324 323 322 322 322 321 320 319 317 314 311 308 306 304 303 301 300 300 299
324 325 325 325 325 326 326 327 327 327 327 327 325 323 327 328 327 325 324 325 325 321 323 323 323 322 321 321 320 319 318 315 315 311 308 306 303 302 302 299 299 299 298
324 324 325 326 325 326 326 326 326 327 328 328 325 323 323 328 328 327 323 323 325 326 324 323 322 321 320 320 319 318 316 312 309 308 306 303 301 302 299 298 298 297 297
321 324 325 326 327 327 326 326 327 326 326 328 326 326 324 326 329 328 327 323 325 324 322 322 321 320 320 319 317 314 311 309 307 305 302 300 300 299 298 297 296 295 295
320 320 322 324 326 325 325 324 325 329 327 327 327 327 325 327 328 327 327 327 325 323 321 321 321 320 318 316 313 310 308 307 304 302 300 300 298 297 297 294 293 293 293
320 320 321 322 326 326 326 326 326 328 330 330 329 329 329 329 327 326 326 324 323 320 320 319 318 316 314 312 308 307 305 302 301 300 299 297 297 297 294 292 292 292 292
320 320 319 319 325 328 329 329 330 330 328 328 329 328 327 326 327 325 323 321 319 317 316 315 314 312 310 308 305 303 301 299 299 298 297 297 295 292 291 290 289 287 285
320 319 319 320 324 329 330 331 331 330 329 329 329 327 326 325 323 322 319 318 316 314 313 311 310 307 305 302 301 300 298 298 297 296 294 292 291 291 289 285 284 285 284
320 320 321 322 327 330 331 330 330 328 327 327 327 325 324 322 322 319 316 314 311 309 306 304 303 302 301 299 298 298 296 296 294 293 292 291 289 285 284 284 283 283 283
319 320 321 322 327 330 330 329 328 327 326 324 323 322 320 318 317 314 312 310 306 304 303 302 300 299 299 299 297 295 294 294 293 292 289 286 284 284 283 283 282 282 282
320 321 322 326 328 329 329 328 326 325 322 320 319 317 315 313 311 310 308 306 304 303 301 300 299 298 297 295 295 294 293 292 291 287 285 283 283 283 282 282 281 281 281
320 321 323 324 325 325 325 324 322 320 318 316 313 311 310 309 308 306 304 302 301 300 299 298 296 295 295 294 293 293 291 289 286 283 282 282 282 281 281 281 280 279 279
320 320 320 321 320 320 319 318 317 315 313 311 310 308 307 305 304 302 301 300 299 298 297 296 295 294 293 292 291 289 288 284 282 282 281 281 280 280 280 279 279 278 278
319 318 318 318 317 316 315 314 313 312 310 309 307 305 304 303 300 298 298 297 297 296 295 294 293 293 291 289 288 286 283 282 281 281 280 280 280 279 279 278 278 277 277
317 316 316 315 314 313 312 311 310 309 308 306 305 303 301 299 297 296 295 294 293 292 291 290 289 288 287 285 283 282 281 281 280 280 279 279 279 278 277 277 277 276 276

GFSMW_850_thetae_057.txt.gz
Theta_e
322 321 320 320 320 319 322 322 321 320 319 315 314 319 321 321 316 316 321 320 318 317 319 322 319 319 321 320 322 323 323 322 321 321 319 317 314 313 312 310 309 312 313
322 322 320 320 320 319 319 320 321 319 315 314 318 319 322 321 317 316 316 319 319 319 320 321 321 322 321 321 321 322 323 322 322 321 320 317 315 314 312 310 308 311 312
323 322 320 319 318 318 317 318 320 320 315 313 314 317 317 316 316 317 316 316 317 319 318 315 316 316 316 319 319 320 322 322 322 322 321 315 315 315 315 311 309 311 312
324 321 318 318 319 319 319 318 319 320 318 317 317 316 314 315 316 316 317 315 315 315 316 315 315 316 319 318 318 319 319 322 322 322 321 318 318 315 312 313 313 312 311
325 321 319 317 317 318 319 319 318 319 318 317 317 316 314 315 314 315 316 315 315 315 315 315 313 319 322 323 323 321 320 321 322 322 322 320 318 316 313 313 313 311 313
326 321 320 318 317 316 317 318 319 319 318 318 317 317 317 317 316 316 315 315 314 314 315 313 314 320 321 322 323 323 322 322 322 322 322 322 320 318 318 314 312 311 312
326 323 322 319 318 317 316 316 317 318 318 318 318 318 317 317 316 314 314 314 314 314 314 314 315 321 323 322 321 321 321 321 320 322 322 321 321 319 317 313 311 312 311
325 325 323 322 319 318 316 316 315 315 317 318 317 315 315 316 314 315 316 315 315 318 318 316 319 321 322 322 322 321 321 321 321 322 321 320 319 318 317 313 312 311 309
324 325 325 324 323 319 319 316 316 316 315 317 316 314 314 314 315 316 317 318 319 321 323 322 321 320 321 323 322 321 322 322 322 322 321 319 318 316 314 311 311 309 306
324 324 325 325 325 323 321 320 317 316 316 315 316 315 315 316 317 318 318 319 320 321 323 325 324 323 321 321 322 321 321 321 323 321 319 318 316 314 312 311 308 305 304
323 324 324 325 325 325 324 322 321 320 318 317 316 316 316 316 317 317 317 318 320 322 325 324 324 323 323 323 322 321 320 321 321 319 319 317 315 312 311 310 306 304 303
323 324 324 324 325 324 325 324 323 322 322 322 321 321 320 319 319 320 320 322 321 323 325 324 323 320 323 323 322 320 320 321 320 320 318 316 312 310 308 305 304 303 301
321 322 323 323 324 325 325 324 324 324 324 324 324 324 324 323 323 323 323 323 323 319 320 326 322 323 323 323 321 321 321 319 319 319 316 311 310 308 306 303 303 302 301
323 323 323 324 324 324 325 325 325 325 325 325 325 325 325 325 325 324 324 325 325 325 321 321 324 323 323 322 320 321 320 319 318 315 313 310 307 305 303 302 302 301 298
319 322 323 324 324 324 324 325 325 325 326 326 326 326 326 326 326 325 325 326 326 323 324 325 325 324 322 321 321 319 319 318 315 311 310 306 304 302 301 301 300 297 295
319 322 323 324 323 323 323 323 323 324 325 326 326 326 327 327 327 324 325 328 327 326 323 322 324 322 321 320 319 319 318 315 312 310 308 303 301 300 300 298 296 296 293
320 320 320 324 324 323 323 323 323 323 323 324 326 327 327 328 327 326 327 326 326 326 323 323 321 321 320 320 318 317 314 311 308 307 303 301 300 299 298 296 296 293 292
321 320 320 320 322 324 324 324 325 325 325 326 326 326 327 327 327 326 324 324 325 324 324 324 321 320 318 316 315 312 310 307 304 301 300 300 299 297 295 296 292 291 289
321 320 319 320 320 324 323 325 326 327 327 328 328 328 328 327 326 324 325 325 324 324 322 320 318 317 315 313 310 307 305 302 301 300 299 298 297 296 293 291 290 287 285
319 319 319 319 320 320 321 324 327 329 329 329 328 328 327 327 326 326 322 322 321 320 317 315 313 312 310 307 304 302 301 300 298 298 297 295 293 292 291 287 285 284 284
319 319 318 318 319 321 322 327 329 330 330 330 329 326 326 325 325 325 323 320 317 314 312 310 308 306 302 301 300 298 297 297 297 295 293 292 291 288 285 284 283 283 283
318 318 318 318 318 320 324 328 329 329 328 327 327 325 325 324 322 321 318 314 312 309 306 304 302 301 300 299 298 297 297 295 294 293 292 289 285 284 283 282 282 281 281
318 317 317 318 320 322 325 328 328 327 325 324 322 321 319 317 314 313 311 309 305 303 302 300 300 299 298 297 297 295 294 293 292 290 287 284 283 282 281 281 281 280 280
320 320 320 322 324 327 327 326 326 325 322 320 317 315 312 310 308 306 304 303 301 301 301 299 299 298 297 295 294 293 292 290 288 285 282 282 281 281 280 280 280 279 279
320 321 321 323 324 324 324 323 321 320 317 314 312 309 307 306 304 303 302 302 301 300 299 298 297 296 295 293 292 290 288 286 283 282 281 281 280 280 279 279 278 278 278
319 319 320 321 320 320 318 317 316 315 313 311 308 307 306 304 303 302 300 298 298 297 296 295 294 293 291 290 289 287 284 285 282 280 280 279 279 278 277 277 277 276 276

GFSMW_850_thetae_060.txt.gz
Theta_e
320 321 319 320 321 322 323 323 324 325 320 323 315 322 321 322 319 317 317 316 318 317 318 319 316 320 320 320 320 320 321 322 322 321 321 320 319 316 315 314 313 311 310
321 320 320 320 320 321 320 321 322 323 319 317 321 317 319 317 317 318 318 319 318 319 317 317 317 319 319 319 318 319 321 322 322 321 321 320 320 319 318 316 315 312 309
322 321 321 321 319 319 319 319 319 321 322 316 320 320 318 317 317 320 317 315 316 319 319 317 319 320 322 319 319 319 319 320 322 322 321 319 319 318 318 316 315 313 309
324 322 321 319 318 318 319 318 319 320 320 320 317 318 316 317 319 317 315 317 315 319 317 318 316 315 315 315 315 316 318 319 320 321 321 321 320 318 317 318 316 313 314
326 325 322 319 317 318 318 319 319 320 320 318 317 316 317 319 320 317 315 315 316 316 317 317 317 316 315 316 316 320 320 320 322 322 322 322 320 320 317 316 316 316 314
325 326 324 320 317 317 318 319 319 319 319 318 316 316 318 318 320 318 317 316 314 315 316 315 315 315 315 314 316 320 321 322 322 321 321 320 319 319 319 318 317 316 315
324 325 325 321 318 317 316 317 319 319 319 318 316 317 315 316 316 316 315 315 315 315 316 315 315 315 315 313 315 320 321 321 321 322 321 318 319 321 320 316 317 316 314
323 324 325 324 320 317 316 316 317 319 319 318 317 317 317 316 315 315 314 313 313 316 316 315 314 314 315 314 315 320 321 322 322 321 321 320 321 320 321 316 315 316 313
323 324 324 325 324 321 318 316 316 316 318 318 318 318 317 317 317 317 317 317 316 316 315 315 314 316 321 321 318 320 321 322 322 321 321 321 321 321 318 318 317 315 311
323 323 324 324 325 324 322 318 316 315 316 316 317 318 317 317 317 317 317 317 315 314 315 315 317 319 322 322 322 322 320 321 322 321 321 320 321 319 318 317 316 312 311
323 324 324 324 324 325 324 323 320 318 315 315 316 316 315 314 314 315 315 315 314 315 316 318 320 322 323 322 323 323 322 322 322 321 320 321 318 318 318 316 313 311 309
320 322 323 324 324 324 324 325 324 321 321 317 315 315 316 315 315 315 315 315 315 316 317 318 318 321 323 319 321 321 321 323 322 320 320 321 319 319 316 313 311 309 307
319 321 322 323 323 324 324 324 324 324 323 322 320 318 316 315 316 316 315 315 315 316 317 321 321 322 323 322 322 322 323 322 322 320 320 319 318 317 313 311 307 306 304
319 319 320 321 322 323 323 323 324 324 324 324 323 322 322 321 320 318 318 319 318 319 321 320 319 322 322 321 323 322 323 322 320 321 319 318 316 313 310 308 305 303 303
321 320 321 322 323 323 323 323 323 322 323 324 324 324 324 323 323 322 322 323 324 324 324 323 323 323 324 321 324 323 323 321 319 319 319 316 311 308 306 304 303 302 302
321 321 320 321 322 322 322 322 322 322 322 323 323 323 324 324 324 324 324 324 325 325 324 324 325 325 324 324 324 323 321 320 319 319 315 310 307 306 304 302 301 300 299
321 321 321 320 320 322 321 322 321 323 323 322 323 324 324 325 325 325 325 325 325 325 325 324 326 324 323 324 323 321 320 320 318 313 310 308 305 303 302 300 300 298 296
318 321 321 320 320 321 322 322 322 323 323 323 323 323 324 325 325 325 326 325 326 325 325 324 322 322 322 323 320 321 319 314 311 309 307 305 303 301 300 299 297 296 294
318 317 319 320 320 319 320 323 323 324 324 324 324 324 324 325 326 326 326 325 325 322 324 321 321 322 323 321 320 315 313 310 307 305 303 301 300 299 298 297 296 293 290
318 318 318 319 318 319 319 319 324 325 325 326 326 326 326 326 326 325 325 325 322 322 322 321 320 319 317 315 312 310 309 307 304 302 300 299 298 297 296 293 291 288 285
319 318 318 318 318 318 319 320 323 325 326 327 327 328 327 325 324 324 321 321 321 320 319 317 316 314 310 309 306 305 303 302 301 299 298 297 295 293 292 290 285 284 284
318 318 318 318 317 318 320 321 322 324 327 328 328 328 327 324 322 322 323 321 319 318 316 313 310 307 305 304 302 300 299 298 297 296 295 294 292 291 286 283 283 283 282
317 319 319 321 319 321 321 322 324 327 328 329 328 326 324 323 321 318 318 315 313 312 311 308 307 305 302 301 299 298 298 297 296 294 292 291 288 284 282 282 283 281 281
318 319 322 322 322 321 322 324 326 327 326 326 325 323 322 319 317 313 311 310 309 307 307 305 302 301 300 299 298 297 296 294 292 291 289 284 282 281 282 283 281 280 280
316 318 321 322 322 320 324 325 325 325 324 323 321 319 317 314 312 309 306 304 303 302 302 302 301 300 299 297 295 293 292 291 289 285 282 283 283 283 280 280 279 279 279
315 315 317 319 320 321 321 321 321 320 319 318 315 313 310 308 307 307 306 303 302 301 300 299 298 297 294 293 292 291 290 288 284 285 283 282 280 279 279 279 278 278 278

GFSMW_850_thetae_063.txt.gz
Theta_e
322 320 319 318 320 323 324 324 325 325 324 319 318 316 315 315 319 319 317 319 316 317 318 318 318 319 319 319 320 320 320 321 321 321 321 321 320 320 318 316 314 313 312
322 319 320 319 321 323 323 324 325 324 324 321 321 319 318 316 316 319 320 317 318 317 317 318 318 319 319 317 320 319 320 321 321 322 321 320 320 321 321 320 318 315 314
324 321 319 319 320 321 322 322 323 324 324 323 322 317 318 322 316 320 318 316 317 316 317 317 318 320 320 318 319 320 320 319 318 320 321 320 320 320 320 320 319 317 315
325 322 320 319 320 319 320 320 322 323 322 321 321 316 321 315 321 322 321 319 317 318 319 319 316 319 318 319 319 318 319 318 318 320 321 321 321 320 320 319 319 318 318
325 325 324 320 317 318 319 319 319 320 321 321 319 320 314 318 319 318 317 317 320 319 318 316 317 317 317 317 316 316 318 319 319 320 320 321 321 321 320 319 318 319 317
324 325 325 322 318 317 318 319 319 319 320 321 318 320 315 319 318 319 317 319 317 315 315 315 317 316 316 315 315 315 316 318 321 321 322 322 321 321 320 319 318 317 318
323 324 325 324 319 317 317 318 319 320 320 319 319 320 317 320 317 315 316 318 316 316 315 315 317 317 316 315 315 315 315 315 318 320 321 319 322 321 318 317 318 317 315
322 323 325 325 321 317 316 317 319 320 320 319 319 320 319 318 315 315 315 318 316 316 315 315 316 316 316 316 314 314 314 315 317 318 320 319 320 321 320 319 320 317 316
322 322 324 325 323 320 317 315 317 318 319 319 320 319 318 317 316 317 319 318 318 316 316 315 315 314 315 315 315 314 317 319 318 320 320 322 321 321 320 321 320 319 315
322 322 323 324 325 322 320 317 315 315 317 318 319 318 318 318 317 317 317 318 318 317 316 316 315 313 315 315 315 317 320 322 321 320 320 321 321 321 321 319 320 317 316
322 323 323 323 324 324 323 321 318 316 315 316 317 318 318 318 317 317 317 317 317 316 315 315 315 315 315 315 316 318 322 322 322 322 322 322 321 321 320 320 318 317 316
316 321 323 323 323 324 324 323 321 319 318 315 315 316 316 317 317 317 316 317 316 317 317 317 316 315 314 316 321 321 321 321 321 321 321 322 321 321 321 318 318 316 315
319 318 320 322 323 323 324 324 324 324 321 319 318 315 315 315 316 316 315 315 315 315 315 315 314 315 315 317 319 319 321 323 322 322 318 321 321 320 320 318 317 314 312
320 319 319 320 321 322 322 323 323 324 324 323 321 320 318 316 315 315 315 315 315 314 315 315 315 315 315 318 320 321 322 322 321 322 322 322 320 320 319 317 315 311 309
319 320 320 320 320 321 322 322 322 322 323 323 324 324 323 321 320 318 317 316 315 316 317 316 317 317 317 318 321 320 323 321 323 323 322 320 319 319 317 314 311 309 307
320 320 321 320 319 321 322 322 322 320 321 322 321 322 323 323 323 323 322 321 320 320 319 319 321 321 322 323 323 323 322 323 323 323 321 319 318 316 312 309 305 305 302
321 321 321 321 321 321 320 321 321 322 321 321 321 322 322 322 323 323 323 323 323 322 322 322 323 323 324 324 324 323 323 323 321 321 320 319 316 311 308 306 305 302 301
318 319 318 318 321 321 321 320 320 322 322 322 321 322 323 323 323 324 324 324 323 324 322 322 324 323 323 323 322 323 323 321 320 320 318 314 311 308 306 305 302 300 299
316 317 318 318 318 319 321 320 319 321 322 322 322 322 323 323 324 324 324 324 324 323 324 324 323 323 322 321 322 321 321 320 317 314 311 308 307 306 303 301 299 298 296
318 319 318 318 318 318 319 319 319 319 321 322 322 322 323 323 324 324 324 324 324 323 323 322 321 320 320 319 319 320 318 316 312 308 306 304 303 301 299 298 297 295 291
317 318 319 318 318 318 317 318 317 317 320 322 323 324 324 324 324 324 324 324 322 322 321 320 318 318 316 315 313 310 310 310 308 307 304 301 299 298 296 295 292 289 285
317 317 317 318 318 318 318 318 318 319 322 325 326 326 326 326 325 323 322 321 321 320 319 317 314 311 310 307 304 304 303 303 303 301 299 298 296 295 292 290 286 283 283
317 318 319 321 321 321 322 322 324 324 325 325 324 325 324 323 322 321 322 320 320 316 314 310 308 306 303 302 301 300 299 298 298 297 296 295 293 290 286 284 282 283 284
316 316 320 320 320 321 323 324 325 325 324 323 322 322 321 320 320 320 318 315 314 310 309 307 306 304 302 300 300 299 297 296 295 294 292 289 286 284 282 283 285 285 283
315 315 315 318 318 316 316 320 321 323 323 322 321 320 318 318 317 314 311 308 307 306 307 305 304 303 300 297 297 296 295 294 292 291 288 284 283 284 285 285 283 279 280
315 314 312 314 315 314 314 314 314 315 319 321 318 316 315 313 311 309 307 304 303 302 301 301 300 298 297 297 294 293 291 291 289 287 285 285 285 284 282 279 278 280 279

GFSMW_850_thetae_066.txt.gz
Theta_e
327 323 320 320 322 324 325 326 326 326 324 323 321 319 320 321 317 319 320 313 314 316 315 315 314 314 319 321 320 320 321 321 320 319 320 321 320 320 319 317 315 315 312
327 323 321 320 322 323 324 325 325 324 325 323 320 320 318 321 318 317 321 317 315 316 318 318 318 318 318 319 319 320 320 321 320 321 322 322 320 321 321 320 321 318 314
327 324 322 320 321 322 323 325 324 325 325 324 321 320 318 319 319 317 316 316 317 316 317 318 318 319 319 319 320 320 319 322 321 321 321 322 321 322 320 320 319 318 319
327 326 323 321 322 322 322 324 324 324 324 324 322 320 319 317 321 319 317 315 315 320 317 317 318 318 318 319 320 320 320 320 321 321 320 321 321 320 320 319 319 319 319
328 327 325 322 321 321 321 322 322 323 324 324 321 321 318 317 319 320 319 315 317 320 317 317 317 317 318 319 319 321 320 317 317 321 320 320 321 321 321 320 321 319 319
328 327 326 324 322 321 321 321 321 322 323 323 323 322 320 319 319 320 317 319 318 318 317 317 316 319 317 317 317 318 318 317 317 318 322 322 322 322 322 320 321 320 319
328 328 326 324 322 321 320 320 321 321 321 322 322 322 320 317 321 317 315 320 318 316 316 317 318 317 317 316 317 317 316 316 316 316 317 317 320 321 320 320 319 318 318
327 327 327 326 323 321 321 320 321 321 320 321 321 320 320 319 320 314 320 320 319 318 318 317 318 317 315 316 317 317 319 316 316 319 317 317 317 314 318 319 318 319 317
326 327 327 326 325 321 321 321 321 322 321 320 320 322 320 319 318 318 319 319 317 317 317 318 316 316 315 315 317 319 320 319 319 318 318 321 319 318 320 321 320 319 318
326 327 327 327 326 323 321 321 321 321 322 321 321 321 321 320 320 320 320 319 318 318 319 318 316 317 316 317 319 319 320 320 320 319 319 321 322 320 320 321 321 321 320
326 327 327 327 327 325 322 320 319 320 321 321 321 321 321 321 321 320 320 319 318 318 318 318 319 319 319 319 319 319 319 321 318 317 319 322 322 322 322 321 320 321 320
323 326 327 327 327 326 324 322 320 320 320 320 321 321 321 321 320 320 320 319 318 318 319 317 318 319 318 318 318 318 318 316 315 319 320 321 320 321 319 318 317 320 320
321 322 326 327 327 327 326 324 323 321 320 320 320 320 319 319 319 319 319 319 319 319 319 320 319 318 318 317 317 317 316 315 315 320 319 319 320 321 319 318 318 320 316
322 322 324 325 326 326 326 325 324 323 322 321 320 320 318 317 318 318 318 318 318 318 317 318 319 319 319 319 319 317 315 314 317 318 320 321 321 322 321 319 319 319 318
320 321 321 323 325 326 326 326 325 324 323 322 322 322 320 318 317 317 316 317 318 318 318 318 317 316 316 316 316 316 315 315 315 319 320 322 321 321 321 321 320 319 316
321 320 320 320 322 324 325 325 325 324 323 323 323 323 322 321 321 319 318 317 316 316 316 317 318 317 317 315 315 315 317 318 322 319 321 322 322 321 320 320 319 316 315
319 320 320 320 320 321 321 323 322 324 322 321 322 322 323 322 322 322 321 321 320 319 318 318 318 318 318 317 317 319 322 323 323 322 322 322 322 321 320 319 316 311 308
318 317 318 319 318 317 319 321 324 323 321 321 322 322 322 322 322 322 322 321 321 321 321 320 320 320 320 321 322 323 323 323 322 321 320 321 319 318 320 315 310 305 304
318 318 317 317 318 318 317 317 321 324 324 320 321 322 323 323 322 322 323 323 323 323 323 323 323 323 324 324 323 322 322 321 320 320 319 319 316 313 307 304 302 301 300
318 318 317 318 318 318 317 316 317 321 323 324 324 324 324 323 323 324 324 323 323 324 323 324 324 324 323 322 322 322 321 321 319 315 314 309 308 306 303 301 300 299 297
318 318 320 318 318 318 318 317 318 319 321 322 323 324 324 324 325 324 324 324 323 324 323 323 323 322 322 321 320 320 318 316 314 310 306 302 300 300 300 298 296 295 293
317 317 319 319 319 320 320 320 322 320 320 319 320 321 321 322 323 323 323 324 323 323 322 321 320 319 317 314 312 309 308 308 307 305 301 300 299 298 296 295 293 291 286
315 316 317 320 320 320 319 318 322 322 322 322 322 322 322 322 323 323 323 322 321 320 319 319 317 313 310 306 303 302 302 302 302 300 298 297 296 295 294 290 288 287 285
310 310 312 315 318 319 318 318 318 320 322 323 323 322 322 321 320 319 319 319 318 317 315 312 309 306 302 301 301 300 299 298 297 297 295 293 292 291 291 290 285 284 286
307 303 304 308 314 316 318 316 315 316 316 318 320 320 320 319 318 316 314 310 310 309 309 306 305 304 301 299 299 298 297 296 294 293 291 290 288 286 284 284 285 284 283
308 308 305 306 307 312 313 314 314 312 312 313 312 314 315 314 311 310 306 301 304 302 302 302 301 299 299 297 295 293 292 292 291 289 288 286 285 284 282 281 279 278 278

GFSMW_850_thetae_069.txt.gz
Theta_e
329 328 325 325 323 325 326 326 325 325 325 324 324 324 322 322 320 316 313 312 319 320 317 318 317 318 319 320 320 321 322 321 321 319 318 318 318 317 316 315 315 314 314
329 328 326 324 323 323 324 326 326 326 325 324 323 323 322 321 318 315 314 320 320 318 315 315 315 316 314 322 322 323 323 323 321 321 321 321 320 319 320 317 317 316 315
329 329 327 325 323 323 324 324 325 326 325 324 323 322 321 320 318 316 317 319 321 320 317 318 316 314 316 323 322 323 323 321 322 321 322 321 322 323 322 320 319 318 318
330 329 327 325 324 323 324 324 324 324 324 323 322 322 321 321 319 316 316 320 316 317 316 317 317 315 319 323 323 321 322 320 320 321 321 321 323 323 322 322 320 319 318
329 329 328 326 325 323 324 325 324 325 324 324 323 321 321 322 321 318 316 321 320 317 316 317 317 318 319 320 320 320 320 320 319 319 320 323 322 322 322 321 321 320 319
328 329 328 327 324 326 322 324 324 324 324 324 323 324 323 321 320 319 318 318 319 317 318 316 316 318 318 318 318 319 319 319 319 319 321 322 322 322 322 322 322 322 321
328 329 328 327 324 325 325 324 324 323 324 324 324 322 322 321 319 322 322 319 316 316 315 319 318 318 318 318 317 319 317 318 317 319 319 319 320 319 321 319 320 320 317
329 329 328 327 325 324 325 325 324 323 322 323 324 323 322 321 319 319 322 320 316 315 315 317 320 318 317 317 318 318 318 317 316 318 319 318 320 320 320 320 318 315 316
328 329 329 328 327 325 324 325 324 324 323 321 323 324 323 322 322 321 321 320 318 318 316 318 318 318 317 317 318 319 318 316 316 317 321 320 320 318 318 320 320 317 319
327 329 329 329 328 326 324 325 325 324 324 323 321 322 323 323 322 321 320 319 317 315 316 318 318 318 317 317 317 317 318 318 318 318 319 321 321 321 320 320 322 320 320
327 328 329 329 329 327 325 325 325 325 325 324 324 322 323 322 322 322 321 320 319 316 317 320 319 317 317 317 318 317 318 319 320 320 320 320 321 319 319 322 322 321 321
327 328 329 329 330 329 327 325 325 324 324 325 325 324 323 323 323 322 322 321 321 320 320 320 320 319 319 319 319 319 319 319 320 320 321 320 320 317 320 321 320 320 318
323 325 328 329 330 330 329 327 326 325 324 324 325 325 324 324 324 323 323 323 322 322 321 321 320 320 320 320 321 321 320 321 320 320 320 320 319 317 317 319 319 319 320
323 324 325 328 329 329 330 329 327 326 325 324 324 324 324 323 323 323 324 323 323 322 322 321 320 320 320 320 320 321 321 320 320 320 320 320 317 315 316 318 319 319 321
321 322 322 325 327 328 329 329 329 327 326 325 324 324 323 323 324 323 323 322 322 322 322 322 321 321 321 321 321 321 321 320 320 320 320 319 317 315 315 318 320 322 321
322 321 322 322 322 325 328 328 329 328 327 326 325 325 324 324 323 323 323 322 322 321 321 320 321 321 321 320 320 319 321 321 321 321 320 318 316 318 319 318 322 321 320
320 320 320 320 322 323 323 327 328 328 328 327 327 326 325 324 324 323 323 322 322 322 321 321 321 321 320 319 318 318 320 321 321 321 319 318 321 323 323 321 319 317 314
320 321 321 320 320 321 320 321 325 328 328 328 327 327 326 325 324 324 324 323 323 322 322 321 321 321 320 320 320 320 320 320 319 318 317 320 322 323 321 320 317 313 309
319 320 321 321 322 323 323 320 319 323 326 328 328 327 326 326 325 325 324 323 323 323 323 323 322 322 321 321 321 321 321 321 320 320 320 320 320 319 319 318 315 309 302
318 319 321 322 321 321 320 321 321 319 320 324 327 328 327 326 326 326 325 325 324 323 323 323 323 323 321 322 322 322 322 322 321 321 319 318 316 313 311 308 306 304 301
318 319 320 319 317 319 320 323 323 322 321 321 323 326 326 327 327 326 326 326 325 325 325 324 324 324 323 322 322 322 321 320 318 316 313 310 307 305 303 300 300 299 298
317 317 318 316 315 318 319 319 320 320 321 321 321 324 325 326 326 327 327 326 326 325 324 324 323 321 321 322 319 318 317 313 310 308 304 301 299 299 298 297 296 295 295
313 313 314 312 315 317 317 316 316 318 320 320 320 321 324 325 325 325 325 324 323 323 323 321 320 316 314 316 312 307 305 304 303 301 298 296 295 296 296 295 295 294 292
306 306 308 306 312 315 315 314 313 315 317 317 316 317 319 320 321 321 319 322 320 318 316 315 315 310 306 306 304 302 301 300 299 297 296 295 294 294 293 292 290 289 288
300 300 299 300 307 309 310 312 312 311 312 313 311 308 309 311 311 311 310 311 310 311 312 309 306 303 300 299 300 298 297 296 296 294 293 292 291 290 289 287 286 285 285
295 296 297 295 300 304 305 307 308 309 308 309 310 308 303 301 301 302 302 302 302 302 300 300 300 296 293 292 293 292 291 291 290 290 289 288 286 285 284 283 281 280 280

GFSMW_850_thetae_072.txt.gz
Theta_e
330 330 328 327 327 328 327 326 324 325 325 324 324 323 323 324 324 324 322 319 316 316 322 324 324 323 322 322 322 320 320 321 321 319 317 315 315 314 314 313 313 313 313
331 329 328 326 325 325 326 325 325 325 325 324 324 324 323 323 323 322 320 320 320 320 322 321 321 322 322 321 321 320 321 321 321 319 317 318 318 316 315 315 316 316 316
330 329 328 326 325 322 327 325 326 325 326 324 324 324 323 323 321 321 318 318 318 321 320 321 321 320 319 318 319 319 320 321 321 319 319 321 321 321 320 319 318 317 317
331 330 328 327 325 323 324 327 327 325 325 324 324 324 323 322 322 319 318 316 316 314 316 319 317 316 314 315 318 319 320 322 320 321 321 321 321 321 320 322 320 318 317
330 330 329 328 326 324 327 326 324 325 324 323 323 323 322 322 321 315 313 313 317 320 320 319 318 315 315 315 315 319 321 320 320 319 319 320 320 319 319 320 321 321 320
330 330 329 328 326 325 325 326 325 324 324 324 323 323 322 321 320 318 314 318 320 319 319 320 319 315 316 313 314 319 321 320 320 319 319 319 318 320 320 320 319 321 320
329 330 330 328 326 326 323 323 325 324 324 324 323 322 323 322 321 320 315 316 320 319 318 319 318 318 317 315 316 319 321 320 319 318 318 319 319 320 320 320 319 318 318
328 329 330 328 325 327 326 323 324 323 323 323 323 323 323 322 322 322 320 316 316 319 318 315 316 317 317 317 318 319 319 318 318 318 317 319 319 319 318 318 318 319 319
328 329 330 328 326 325 327 326 324 323 322 323 323 324 324 323 322 322 321 319 317 315 317 318 315 316 316 316 318 318 317 317 317 318 317 317 317 317 318 319 319 319 320
327 329 330 328 327 325 325 326 326 324 323 322 322 323 324 323 323 322 320 322 320 318 316 317 317 316 318 318 317 318 318 317 317 318 318 318 317 317 317 318 320 320 319
327 329 330 329 328 327 326 325 326 325 325 325 322 322 323 324 322 323 322 320 322 322 321 318 316 315 315 316 319 318 318 317 318 319 319 319 317 317 318 318 319 320 319
327 329 329 330 329 328 326 325 325 325 325 325 325 322 322 324 323 323 322 322 321 321 321 320 318 317 317 316 316 317 317 317 318 318 319 319 319 320 320 320 320 320 318
325 328 329 330 330 329 328 326 326 325 325 325 325 325 324 321 323 323 323 322 322 322 321 320 317 316 316 316 317 319 318 317 318 318 319 319 320 321 321 321 320 319 319
323 324 327 329 330 330 330 329 327 326 325 325 326 326 325 323 322 322 322 323 323 323 322 321 321 318 315 315 319 320 318 318 318 319 320 320 321 321 321 321 320 320 319
322 322 322 324 328 329 331 330 330 328 326 325 325 326 325 325 325 324 323 324 323 323 323 323 322 322 321 321 322 322 322 321 321 321 321 321 321 321 321 320 320 320 319
322 322 322 321 321 326 328 329 330 330 328 327 326 325 325 326 325 325 325 325 325 324 324 324 323 323 323 322 322 321 321 321 321 321 321 321 322 321 321 320 320 319 319
320 321 322 322 321 321 322 322 329 329 330 329 328 326 325 325 325 326 325 324 324 324 324 324 324 324 323 322 322 322 322 322 322 322 322 322 321 321 321 321 320 318 318
319 320 321 323 323 324 323 323 320 321 329 329 329 328 327 326 326 326 325 325 325 325 324 323 323 323 323 323 323 323 323 323 322 322 321 321 322 321 321 321 321 318 317
319 320 321 321 320 320 321 321 322 323 320 327 329 329 329 328 327 326 326 326 325 325 325 325 324 324 323 323 323 323 323 322 322 321 320 320 320 320 320 320 319 315 312
319 319 319 317 317 319 321 323 324 323 321 320 321 323 329 328 328 328 327 326 326 325 325 325 324 324 324 323 323 323 322 321 321 321 321 320 320 320 319 316 312 308 304
317 316 316 314 314 318 319 320 320 321 320 321 321 322 325 328 328 328 327 327 327 326 325 325 324 323 323 322 323 322 322 322 322 321 321 318 317 315 311 306 304 301 298
311 312 312 308 309 313 315 316 317 317 318 320 320 320 322 324 326 327 328 327 327 327 326 325 324 323 323 322 322 322 322 322 319 317 314 310 305 303 300 297 297 296 295
305 304 304 303 306 307 309 312 314 313 315 316 318 318 318 320 323 323 324 325 325 325 326 325 324 323 321 318 316 318 312 314 309 303 303 301 298 295 294 294 294 293 293
300 299 299 298 302 305 306 306 308 309 309 311 311 309 311 313 315 316 313 315 319 318 317 314 314 314 309 305 296 297 301 299 299 296 294 293 293 293 292 291 290 290 289
295 295 296 296 298 302 303 303 303 305 306 307 308 309 308 308 307 305 301 298 299 304 306 303 299 296 296 293 296 297 296 295 291 290 290 290 289 290 289 288 288 287 286
294 294 295 296 297 298 300 301 301 301 302 303 304 304 305 305 304 302 300 296 289 291 295 296 296 292 289 290 289 290 290 290 290 290 289 287 286 285 284 284 283 282 282

GFSMW_850_thetae_075.txt.gz
Theta_e
330 330 329 328 327 326 326 327 324 324 324 324 324 325 326 327 328 328 325 325 321 320 319 317 319 323 321 320 323 321 319 320 320 318 318 317 317 317 317 320 318 318 317
330 330 329 328 327 325 324 324 324 325 324 323 323 326 326 326 326 325 326 324 320 320 319 319 323 322 323 322 322 320 319 319 319 318 317 316 315 315 314 314 315 316 317
330 329 328 328 327 324 325 326 324 325 324 324 322 323 323 324 324 324 325 323 321 320 320 322 320 321 321 320 321 320 319 321 320 320 318 317 316 316 315 315 315 315 315
330 329 328 328 326 323 323 325 326 325 324 324 323 323 322 322 323 324 324 322 320 318 319 318 322 323 322 320 321 321 320 321 319 320 319 318 320 321 321 319 318 318 317
330 329 329 328 326 323 322 327 324 326 324 324 323 323 323 323 322 323 321 318 317 318 321 322 322 322 321 321 321 321 319 320 320 320 320 319 320 321 320 319 318 321 320
330 329 329 328 327 324 323 323 326 326 324 324 323 323 323 323 322 322 320 320 320 319 320 322 321 321 319 319 317 317 319 319 320 321 319 319 320 319 319 319 319 318 318
330 329 329 328 327 325 322 326 326 325 324 323 322 323 323 322 322 322 322 318 319 319 319 318 318 318 318 318 315 315 319 320 320 319 318 319 318 318 319 319 319 320 320
330 330 329 328 328 326 324 324 326 323 323 322 322 322 322 322 322 321 321 319 318 318 320 320 319 317 317 317 314 316 315 316 318 317 320 319 318 318 318 319 320 319 319
329 330 329 329 328 326 325 321 324 325 324 323 322 322 322 322 322 321 321 317 314 314 317 318 318 318 318 318 317 316 316 318 319 318 319 319 318 317 317 318 318 318 319
329 330 329 329 328 327 325 325 321 321 322 323 322 322 322 322 323 323 322 321 318 314 317 319 319 320 318 319 318 317 317 318 318 319 318 318 317 317 317 317 317 317 317
329 329 329 329 328 327 326 325 325 323 321 320 322 322 322 322 322 322 322 322 322 318 316 316 317 317 316 316 316 317 316 317 317 318 318 317 317 317 317 318 318 318 317
329 330 329 328 328 327 326 325 325 324 324 323 323 321 322 322 322 323 322 322 322 322 321 320 318 315 315 316 316 317 317 317 317 317 318 318 318 318 318 318 318 318 317
328 329 330 329 328 327 327 326 326 325 324 325 325 325 323 321 323 323 323 322 322 321 321 321 320 321 319 318 316 316 316 316 316 317 318 318 318 318 318 318 318 318 318
322 328 329 330 329 328 328 328 327 327 325 323 325 325 325 324 320 323 324 323 322 322 321 321 321 321 320 321 320 317 316 316 315 315 315 316 318 318 318 318 318 319 319
322 322 322 322 327 329 329 329 329 329 328 326 324 325 325 325 325 323 322 323 323 323 322 322 321 322 321 321 319 318 317 316 317 316 316 317 319 318 317 318 319 320 321
321 322 323 323 323 325 326 328 328 329 329 328 327 325 325 325 326 325 325 323 322 322 322 322 322 322 322 322 321 320 319 317 315 315 316 319 319 319 319 320 320 321 321
319 321 322 322 322 322 322 323 323 327 328 328 328 328 327 325 325 326 325 325 325 324 323 323 323 324 323 323 322 322 321 321 321 321 321 321 321 321 321 321 322 322 322
320 320 319 317 318 319 320 320 322 322 323 328 327 326 326 326 326 325 325 325 325 325 325 325 325 324 324 324 323 324 323 322 322 322 322 322 321 321 321 321 322 322 321
319 319 318 316 316 317 319 321 322 322 322 322 323 326 326 327 326 326 326 326 325 326 325 325 325 325 324 324 324 324 323 322 322 322 322 321 321 321 321 321 321 321 322
315 315 316 315 315 317 317 318 319 319 319 320 320 320 322 325 326 328 327 326 326 326 326 326 326 325 325 325 324 324 323 322 322 322 323 323 322 322 321 321 320 321 317
307 310 312 311 311 313 314 315 316 316 315 316 318 319 320 320 323 325 327 327 327 326 326 326 326 326 325 325 325 324 324 324 323 322 323 322 321 321 320 319 315 309 303
305 305 306 306 307 308 310 311 313 312 313 314 314 314 316 319 319 321 323 326 324 325 325 325 325 325 324 324 323 323 323 323 322 319 313 310 312 304 302 301 300 297 297
302 301 301 301 303 305 306 308 307 309 309 309 310 310 309 311 314 316 318 321 321 319 316 313 311 308 311 314 312 314 314 318 314 303 298 298 296 295 296 293 292 291 292
298 299 300 300 301 302 303 303 303 303 305 307 307 308 308 308 308 309 311 311 312 311 308 304 302 299 296 295 296 297 298 299 298 296 293 292 291 291 290 290 290 290 290
297 297 296 296 297 299 300 301 302 302 302 302 303 303 302 302 302 302 300 300 300 300 303 301 298 294 292 290 291 292 292 291 290 290 290 290 290 289 289 288 287 286 286
292 294 293 292 291 293 295 296 298 299 299 299 299 299 297 295 295 295 294 292 290 291 292 294 296 291 290 291 289 288 289 290 289 290 289 286 286 286 285 285 284 283 283

GFSMW_850_thetae_078.txt.gz
Theta_e
329 330 329 329 328 328 327 320 324 323 324 326 325 326 327 329 329 326 327 325 322 323 320 314 312 312 314 319 319 320 320 318 318 320 319 320 320 320 320 320 319 317 317
329 329 329 329 328 328 326 320 323 324 323 324 326 327 328 328 328 328 326 325 324 323 321 316 314 314 321 322 322 321 320 319 318 318 318 319 319 319 319 318 317 317 317
329 329 329 329 328 327 326 318 322 324 323 324 325 324 326 327 326 327 325 324 324 323 319 317 315 318 316 319 322 321 320 319 319 319 318 317 316 317 316 316 314 314 315
328 329 329 328 328 327 323 319 324 324 323 323 323 325 325 325 325 327 326 324 323 322 319 318 315 321 322 321 321 321 319 320 319 319 318 317 316 316 316 315 315 314 315
328 329 329 329 328 326 320 320 324 323 323 323 324 322 322 323 324 325 326 325 323 320 320 318 318 320 323 322 322 321 320 319 319 319 318 317 317 319 320 320 318 317 318
328 329 329 328 327 325 320 321 325 325 324 324 323 322 323 322 323 323 323 324 323 321 321 321 321 322 321 321 321 320 320 319 320 319 320 318 318 319 320 320 320 319 318
328 328 328 328 327 325 320 321 325 324 324 324 324 323 323 323 323 322 322 324 323 321 320 319 320 320 321 322 319 319 319 320 319 320 320 319 319 319 319 320 319 318 318
328 329 329 328 327 326 322 319 323 323 323 322 323 323 323 322 322 323 322 323 323 321 319 319 322 322 322 322 321 321 321 320 320 319 319 321 319 318 317 319 318 318 319
327 329 328 328 328 326 323 318 321 324 325 322 322 322 322 322 322 322 322 323 322 320 319 318 321 322 321 321 320 320 319 315 316 317 320 320 319 318 318 318 318 318 318
327 328 328 328 328 327 324 321 319 322 324 322 322 322 322 322 322 322 322 322 322 321 320 318 318 319 319 318 318 317 316 316 315 317 318 319 317 317 318 318 318 317 317
328 328 328 329 328 327 325 323 322 321 323 322 322 321 321 321 321 322 322 322 321 321 320 318 317 318 318 317 315 316 315 316 315 317 316 318 317 318 317 318 317 317 317
328 328 328 328 328 328 326 325 324 322 320 320 321 322 321 321 321 322 322 322 321 320 319 318 318 318 319 319 317 317 319 319 317 317 317 317 317 318 318 318 317 317 317
327 327 327 328 328 328 327 326 325 324 322 321 320 320 320 322 321 321 321 321 321 322 322 320 318 315 315 318 318 317 317 319 318 318 317 317 316 317 317 318 318 317 317
325 326 326 325 325 326 326 326 326 326 325 323 322 322 322 321 321 321 322 321 321 321 321 322 322 320 315 316 317 317 317 316 316 316 316 316 316 316 317 317 318 318 318
322 322 324 326 327 325 325 325 325 326 326 325 325 323 322 323 324 323 321 321 321 321 321 321 322 322 321 321 320 320 319 320 319 318 318 317 316 316 315 315 315 315 316
318 318 319 321 323 324 326 327 327 326 325 326 325 325 324 325 325 325 324 323 321 320 322 322 322 322 321 321 321 321 321 321 320 320 320 319 318 317 316 316 317 316 317
314 315 317 318 319 321 322 322 322 324 327 325 325 324 324 325 325 325 325 325 325 324 323 322 321 322 322 322 322 322 321 322 321 321 320 320 319 318 317 316 316 317 319
311 312 314 316 317 318 320 321 321 320 323 325 325 325 325 324 324 324 325 325 325 325 325 325 324 324 323 322 322 322 322 322 322 321 321 321 321 321 321 321 321 321 321
308 310 312 313 315 316 317 318 319 319 319 319 321 323 324 324 325 325 324 325 325 325 325 325 325 325 325 324 324 324 324 323 322 322 322 322 322 322 321 321 321 321 321
308 307 309 311 312 311 314 315 315 315 316 316 315 318 319 319 320 323 325 325 324 325 325 325 325 325 325 325 325 325 325 324 324 324 324 323 323 322 322 321 321 321 321
304 306 308 309 308 309 310 311 311 310 309 309 311 313 315 317 318 317 318 321 323 324 324 324 325 325 325 325 325 325 325 325 324 324 324 324 324 323 323 322 320 318 313
305 304 305 305 305 306 307 305 306 304 307 308 309 310 310 311 313 315 316 316 318 320 319 319 320 320 318 321 320 321 323 320 317 315 306 301 301 304 307 308 306 300 296
300 300 301 302 303 304 305 304 303 302 303 305 307 307 307 308 308 310 312 314 314 314 314 313 310 308 306 307 306 303 307 308 306 301 298 298 299 299 297 293 293 293 293
297 298 299 299 300 301 302 302 303 303 302 302 303 303 304 303 303 304 303 303 303 302 301 301 301 300 299 299 299 300 298 300 299 296 293 292 292 292 291 291 291 291 291
295 296 296 296 295 296 299 300 301 301 302 302 302 301 300 299 298 298 297 296 294 295 295 294 295 294 293 291 291 292 293 293 292 292 292 292 292 291 290 289 288 288 288
290 291 291 292 292 293 293 294 295 296 297 297 297 297 297 296 294 291 290 289 289 290 290 289 290 288 288 289 290 291 291 290 290 291 290 288 287 287 286 286 285 284 283

GFSMW_850_thetae_081.txt.gz
Theta_e
318 321 327 329 329 328 328 327 324 321 324 324 324 327 327 328 328 328 326 328 327 327 324 315 309 308 308 308 311 319 320 320 320 320 321 321 321 320 320 319 318 314 313
319 324 328 329 329 329 328 327 323 323 323 324 324 326 326 328 329 329 327 327 327 325 323 311 308 307 307 308 309 319 320 319 319 320 321 321 320 321 320 320 320 319 317
320 326 328 329 329 328 328 327 323 323 323 323 324 325 327 326 327 327 328 327 325 322 322 310 308 307 309 309 310 318 318 315 317 318 320 319 320 320 320 319 318 316 316
323 326 328 329 329 328 328 326 320 323 324 323 324 325 325 327 326 327 328 327 323 323 323 319 310 310 310 312 312 315 316 318 318 318 319 319 317 317 317 317 316 315 314
322 326 328 328 328 328 327 326 319 324 323 323 323 324 325 325 327 326 327 327 323 324 323 320 313 312 312 318 320 320 320 320 318 318 318 318 316 316 316 316 317 315 314
322 326 328 328 328 328 327 323 320 324 324 323 322 324 323 324 325 324 324 326 324 323 324 322 319 314 316 317 322 322 321 321 319 319 318 318 317 317 317 317 319 319 318
323 325 327 327 328 328 327 321 320 323 322 323 323 323 322 323 324 324 325 326 325 325 323 322 320 318 318 319 318 320 322 321 320 319 319 319 319 318 318 318 319 320 319
322 324 326 327 328 328 327 321 320 322 322 323 323 323 322 322 322 323 324 324 325 324 324 322 320 319 316 320 322 322 322 321 320 320 320 319 319 318 318 319 318 319 318
323 325 326 327 328 328 327 320 319 321 322 323 323 323 323 322 322 322 322 321 322 324 324 322 321 319 319 319 322 321 320 319 318 317 320 320 320 319 320 319 319 318 317
325 325 326 327 328 328 326 321 318 320 321 321 322 323 323 323 322 322 322 322 322 323 324 323 321 320 320 320 321 320 321 319 318 318 320 320 319 319 319 320 318 317 316
325 325 326 327 328 327 326 323 319 319 320 321 322 322 323 322 322 322 322 322 322 322 322 322 321 320 321 322 322 321 321 321 320 320 319 317 316 318 317 318 318 316 316
325 325 326 327 327 327 326 324 320 319 319 320 322 321 322 322 322 322 322 322 322 322 322 321 320 319 318 319 321 321 320 320 319 318 317 316 315 316 317 317 316 317 318
325 325 325 325 326 326 325 324 323 322 321 321 320 321 321 321 321 321 322 322 322 322 321 321 321 321 320 319 318 317 318 317 316 316 316 316 317 316 317 317 317 317 317
323 323 324 325 325 325 325 325 324 324 323 322 321 321 321 321 321 321 321 321 321 321 321 321 321 320 320 319 318 319 320 320 318 316 316 317 317 318 317 318 318 318 317
317 319 321 323 324 325 325 325 325 325 325 324 323 323 322 321 321 321 321 321 320 321 321 320 320 321 321 321 319 318 317 316 317 318 318 317 317 316 316 317 316 316 316
312 313 316 320 322 323 324 324 325 325 325 325 325 325 325 324 323 323 323 322 321 321 321 320 321 321 320 321 321 321 321 321 319 318 319 320 319 319 320 319 319 319 317
308 308 311 313 316 318 319 322 323 325 325 324 323 323 323 324 324 324 324 324 323 323 323 322 321 321 320 320 320 321 321 321 321 321 321 321 321 321 321 321 320 319 318
303 306 308 310 313 315 317 318 320 323 323 323 322 323 323 323 323 323 323 324 324 324 324 324 323 323 323 322 322 322 322 322 322 321 321 321 321 321 321 320 320 319 320
303 305 306 308 310 313 314 315 316 317 318 320 320 321 321 322 322 322 322 323 323 323 323 324 323 323 322 323 323 323 322 322 322 323 323 321 321 321 321 321 321 321 321
303 305 306 306 307 306 308 310 310 312 313 313 315 317 318 318 318 319 319 321 321 321 322 322 322 323 322 323 324 324 324 322 322 321 321 321 321 321 321 321 320 318 318
302 303 305 306 306 306 307 309 308 308 307 307 309 310 311 313 314 314 315 316 317 319 319 319 320 319 318 318 320 320 320 320 319 318 317 316 316 319 319 320 316 313 309
299 300 301 302 302 302 303 303 304 303 305 306 307 308 308 309 309 310 311 311 313 315 315 312 311 310 310 310 310 311 310 310 310 311 309 307 307 303 305 307 308 303 299
295 296 297 299 300 301 302 303 302 302 302 302 304 304 304 304 304 305 306 307 307 307 307 306 304 302 301 301 301 301 302 303 302 300 298 297 297 298 298 294 293 294 294
295 295 297 297 297 298 299 300 300 300 301 302 301 301 302 302 302 303 302 302 301 300 298 298 297 296 296 295 295 295 295 295 295 293 293 293 293 292 291 291 291 291 291
292 293 294 294 294 294 295 296 296 295 296 297 296 297 298 298 299 299 298 297 294 295 295 293 293 292 291 290 292 292 292 292 292 292 291 291 290 289 288 288 287 287 287
289 290 290 291 291 291 292 292 293 293 294 295 295 294 293 292 292 291 290 289 290 291 291 290 290 288 288 289 290 290 290 290 289 291 290 288 288 288 286 286 286 285 285

GFSMW_850_thetae_084.txt.gz
Theta_e
319 319 318 317 324 328 329 328 327 327 325 325 328 327 326 328 329 327 325 326 325 326 326 326 325 326 317 325 324 320 320 320 321 321 321 320 320 319 316 315 312 312 312
319 318 318 318 325 329 328 328 328 326 322 323 324 326 326 326 327 328 327 326 326 326 327 326 326 324 315 323 321 319 319 320 322 322 321 320 319 319 319 319 317 318 314
319 317 318 320 326 328 328 328 328 326 321 323 323 326 325 327 326 327 327 327 325 326 326 327 327 321 312 318 318 318 319 320 321 321 321 320 320 320 320 320 320 319 319
318 316 319 322 326 328 328 328 327 324 321 323 324 324 323 325 326 327 327 325 326 327 327 327 325 316 311 311 313 317 319 320 320 320 320 320 319 320 320 320 320 318 316
318 317 318 323 326 328 328 328 326 322 320 323 322 323 324 326 325 327 327 325 327 325 326 324 319 311 309 309 309 314 319 319 320 320 319 319 319 317 316 316 316 317 313
317 321 322 324 326 327 329 328 326 320 322 323 323 325 323 324 325 326 327 326 326 327 324 324 317 309 308 308 308 309 317 319 319 317 315 316 318 318 316 315 315 316 317
317 320 321 325 327 327 328 327 326 319 322 323 323 325 323 324 324 325 326 326 327 326 320 321 320 319 308 309 310 309 315 319 317 318 318 317 317 317 316 316 317 317 317
318 319 319 323 326 327 328 327 325 319 322 324 323 323 325 323 324 324 324 326 326 325 323 325 322 321 315 312 311 317 317 319 320 320 320 319 318 318 318 318 317 318 319
319 319 320 324 325 327 328 327 325 318 321 323 323 323 323 322 322 323 324 324 325 325 324 323 321 322 321 317 315 315 318 319 319 321 321 320 319 319 319 319 318 318 319
318 319 322 324 324 326 328 327 324 317 320 321 322 323 323 322 322 322 322 323 323 325 325 325 324 323 321 320 317 320 319 318 317 319 320 320 319 319 319 319 318 318 319
322 323 324 324 325 326 327 326 322 318 320 321 322 322 323 322 322 322 322 322 322 321 322 322 323 323 321 321 320 319 319 321 322 320 320 320 318 318 316 319 319 319 319
323 324 324 323 324 326 326 325 322 318 320 321 321 320 321 322 321 321 321 321 322 322 321 322 322 323 321 321 320 320 320 320 321 320 320 319 318 318 318 318 317 317 317
323 323 323 323 324 325 325 324 322 319 319 320 321 322 320 320 320 321 321 321 321 321 321 321 322 321 321 321 321 320 320 320 321 321 321 320 320 319 318 318 317 316 315
322 323 323 324 324 324 324 325 323 321 321 321 320 320 320 320 320 320 320 321 321 321 321 321 321 321 321 320 319 319 319 319 320 320 320 320 319 318 318 317 317 317 318
313 316 319 321 323 323 323 324 324 323 323 323 323 322 321 321 320 320 320 320 320 320 321 321 321 321 321 321 321 320 319 319 319 318 318 318 319 318 318 318 317 318 318
307 309 312 316 319 322 323 323 324 325 324 324 324 323 323 322 322 322 321 321 321 321 321 320 320 320 320 320 320 320 320 321 321 321 320 320 320 319 317 316 315 317 318
303 303 304 307 311 316 320 322 322 324 324 323 323 322 323 323 323 323 323 323 323 323 323 322 322 322 321 321 320 320 320 320 320 319 320 321 321 321 321 321 321 321 320
298 299 301 303 307 310 318 318 318 320 322 322 321 322 322 322 323 323 323 323 322 322 323 323 323 323 322 322 322 322 322 321 322 322 322 322 322 321 321 321 321 321 321
298 299 301 301 304 309 312 315 316 317 317 318 318 319 319 320 320 321 321 322 322 322 321 321 321 321 321 321 322 322 322 322 322 321 320 320 320 319 320 320 320 318 317
299 302 301 303 302 302 306 310 310 312 313 313 314 314 316 316 318 318 318 319 320 320 319 319 320 320 320 321 321 321 321 320 320 320 318 320 317 318 318 318 316 315 312
298 301 302 302 300 301 303 305 305 307 306 307 307 308 310 311 312 312 313 314 315 317 317 315 315 314 314 313 313 315 315 316 315 315 313 312 312 312 314 311 311 309 308
297 298 300 300 300 300 301 301 301 301 301 303 305 305 305 306 306 308 309 309 311 311 312 311 310 309 308 306 306 307 308 308 308 307 305 303 301 301 302 304 304 303 296
293 296 297 297 298 298 299 300 298 300 301 301 300 302 303 303 303 303 303 304 304 305 305 304 303 302 301 301 300 300 300 300 300 299 297 295 295 295 296 294 293 293 293
292 293 295 295 295 296 297 298 298 298 299 299 299 299 300 300 300 301 300 299 299 297 296 296 296 295 294 294 294 294 295 294 294 293 293 293 292 292 291 291 290 290 290
290 291 290 290 290 292 293 292 294 294 295 295 295 295 295 295 296 295 294 292 290 292 292 291 291 291 291 290 291 291 291 291 291 291 290 290 290 289 288 288 287 287 286
288 288 288 289 289 290 291 291 291 292 294 294 294 293 292 292 292 291 290 288 289 290 289 288 289 288 288 288 289 289 289 289 289 290 290 289 288 288 287 286 286 285 285

GFSMW_850_thetae_087.txt.gz
Theta_e
316 317 317 319 319 318 319 328 329 330 329 327 325 327 326 326 327 327 328 326 326 327 326 326 325 323 323 324 324 325 322 321 321 321 320 320 320 318 316 313 313 313 313
316 317 317 318 318 318 318 327 329 329 328 327 326 328 326 325 327 326 327 326 325 326 326 326 325 320 325 324 325 324 321 321 321 321 320 319 319 318 318 315 313 313 312
316 316 317 318 318 318 319 326 329 329 327 327 323 327 325 326 326 325 327 327 324 325 325 325 325 324 325 324 324 323 321 321 321 321 321 320 322 320 318 318 317 314 315
315 317 318 318 318 319 323 328 329 328 327 325 321 323 324 324 325 326 326 326 327 326 325 327 325 325 325 326 323 324 323 320 320 321 321 321 320 321 321 319 319 319 319
317 317 318 318 318 321 325 328 328 328 327 321 322 322 324 323 323 324 326 326 327 325 325 325 326 326 326 326 321 325 323 320 320 321 321 321 320 319 318 320 319 319 318
317 318 317 318 320 323 326 328 328 328 326 319 324 325 322 324 325 326 326 326 326 324 325 326 325 326 327 324 317 323 322 319 319 320 321 321 320 319 318 316 316 316 315
316 317 319 320 323 323 326 328 328 327 325 320 323 324 323 323 325 325 326 326 325 325 325 326 326 325 323 317 313 317 320 318 319 320 320 320 320 319 316 316 316 314 315
321 318 321 323 324 323 325 328 328 327 322 322 323 325 323 324 324 324 325 326 325 322 321 324 324 318 313 311 309 310 312 314 313 317 319 320 319 316 317 318 317 316 317
322 321 319 321 323 323 325 328 327 327 320 324 324 324 323 323 323 322 324 325 325 325 322 323 320 321 319 319 312 308 309 310 313 314 317 317 317 319 318 318 318 318 318
323 320 318 320 323 323 325 327 327 326 320 324 324 324 323 323 323 323 322 324 325 325 325 324 322 321 321 321 317 310 310 311 311 312 318 318 317 319 320 319 318 318 317
323 322 323 324 323 322 326 326 326 324 320 326 322 322 321 323 322 322 322 323 324 324 325 325 323 324 322 321 321 316 312 315 315 314 317 318 317 319 320 320 318 318 319
322 323 324 324 322 323 324 327 325 322 320 323 321 321 321 320 321 321 321 322 322 322 322 322 323 323 322 322 322 320 313 313 315 317 317 318 317 318 318 318 319 318 318
320 321 322 320 320 321 325 326 324 320 319 321 322 320 320 321 321 321 320 321 321 321 321 321 321 322 323 322 321 322 320 318 317 318 319 320 321 321 320 319 318 317 317
312 319 320 320 321 320 325 324 322 319 319 320 321 321 320 320 320 320 320 320 320 321 321 321 321 321 322 321 322 322 321 321 321 320 319 320 320 321 321 320 320 320 319
306 309 311 318 320 321 322 322 321 320 320 320 321 320 320 320 320 320 320 320 320 320 320 321 321 321 321 321 321 321 321 320 320 319 319 319 319 319 319 319 319 319 319
303 303 305 310 316 318 320 322 321 322 322 321 322 322 322 321 321 321 321 320 320 320 320 320 320 320 320 320 320 320 320 319 320 320 320 320 320 320 319 318 318 318 318
298 299 301 303 307 314 318 321 322 322 322 322 321 321 322 322 322 322 321 322 321 321 321 321 321 321 321 321 320 320 320 319 319 319 319 319 319 319 320 320 320 321 321
297 297 298 300 303 307 315 316 319 321 321 321 320 320 321 321 320 320 321 321 322 321 321 321 322 321 322 322 322 322 322 322 321 320 319 319 319 318 319 319 320 319 319
296 297 297 298 301 306 310 315 313 316 315 318 318 317 318 319 320 320 320 321 321 321 321 321 321 320 320 321 321 321 321 320 321 320 320 319 319 319 318 318 318 317 316
301 297 298 300 300 301 305 308 311 312 315 314 313 314 316 317 317 317 318 318 319 319 318 318 318 318 317 317 318 319 319 319 318 318 318 319 317 317 316 315 314 312 311
296 299 300 298 298 300 304 307 302 303 305 305 306 308 310 310 311 311 312 313 313 313 312 313 311 311 311 311 311 311 312 312 313 312 311 310 309 309 308 307 308 307 307
293 295 300 298 298 301 302 302 301 300 302 303 303 303 305 305 306 306 307 308 308 308 308 307 307 306 305 304 305 305 306 306 307 306 303 301 300 300 300 300 299 297 296
291 293 295 296 297 299 299 300 298 298 300 301 302 303 304 303 302 303 304 303 303 304 303 302 301 300 299 298 298 299 299 299 300 298 296 294 294 295 295 294 294 294 294
292 292 294 295 295 295 295 295 294 296 297 298 298 298 299 299 299 300 299 298 298 297 297 296 295 294 294 294 293 294 294 294 294 292 291 292 292 292 291 291 291 291 290
289 290 290 290 290 292 292 292 293 293 294 295 294 294 294 295 294 294 292 292 291 292 292 291 291 291 291 290 290 290 290 290 290 290 290 290 289 289 289 289 289 288 288
286 287 287 287 287 288 289 289 290 291 292 292 291 291 291 291 290 290 289 289 289 290 290 289 290 289 289 289 289 289 289 289 288 289 289 288 288 287 286 286 285 285 285

GFSMW_850_thetae_090.txt.gz
Theta_e
317 318 318 319 319 319 323 328 333 327 331 331 332 331 327 324 325 328 328 327 326 327 327 328 327 327 326 325 322 324 325 325 324 323 323 322 323 322 320 319 319 319 319
316 317 318 319 322 321 319 328 333 327 330 331 331 329 326 325 324 325 326 327 328 329 328 327 327 327 326 325 322 324 324 324 323 322 322 321 321 321 321 319 319 320 319
316 316 317 318 323 321 321 329 332 328 330 332 330 328 326 325 325 325 326 327 327 327 326 327 326 326 325 325 323 324 325 324 322 323 322 322 322 322 322 321 319 319 319
318 317 317 318 322 326 326 329 331 331 330 330 330 327 327 325 326 326 326 327 327 326 326 325 326 326 325 323 323 324 324 324 323 323 322 322 321 322 322 322 321 320 319
318 318 317 318 321 327 327 327 331 331 330 329 329 326 325 326 327 325 325 325 325 326 324 325 325 326 322 323 324 324 324 323 323 323 323 324 324 323 321 321 321 321 320
323 320 319 319 324 327 324 325 330 330 329 328 327 324 326 324 325 325 325 325 325 325 325 324 325 325 323 322 325 324 324 323 323 322 323 323 323 322 321 320 321 321 321
324 324 324 325 326 327 323 325 329 329 327 327 324 320 323 325 324 324 326 326 326 325 326 325 326 326 325 325 325 325 324 323 323 322 322 322 322 321 321 320 318 319 320
325 325 324 327 327 326 327 326 326 328 325 326 320 323 324 324 324 325 325 325 324 325 324 323 325 324 324 325 325 325 323 324 324 322 320 320 321 322 322 321 319 319 319
326 326 325 326 328 326 326 329 327 328 325 324 320 323 323 323 324 324 324 324 325 324 323 323 324 325 326 325 324 321 318 322 323 323 319 319 320 320 321 321 319 319 319
326 326 323 326 328 327 324 327 327 327 323 321 322 322 323 323 322 323 324 324 323 324 323 323 324 324 321 317 314 313 312 311 316 319 318 316 313 320 320 319 317 318 319
323 325 325 326 327 326 324 325 326 324 322 320 324 322 322 322 322 322 323 323 324 324 321 322 321 321 320 317 320 321 319 312 309 311 315 313 313 315 317 318 315 316 317
317 323 323 325 325 323 321 323 325 324 321 321 323 323 323 322 322 322 325 323 324 324 324 321 320 322 320 320 322 321 320 314 310 315 315 313 312 311 317 318 317 318 319
312 320 321 321 321 321 321 322 323 324 321 325 324 322 322 322 322 321 322 322 323 323 323 323 324 323 322 322 322 322 322 321 315 312 311 311 311 315 317 317 316 318 317
308 309 317 319 321 321 321 322 323 325 324 325 322 321 321 321 321 321 321 321 322 322 322 322 322 322 322 322 322 322 322 321 320 316 313 315 316 316 318 318 319 319 321
304 303 310 314 316 320 321 322 322 324 322 322 322 321 320 320 320 321 321 320 321 321 321 321 321 322 322 322 322 321 322 322 321 320 318 316 316 319 320 320 320 321 321
301 300 305 307 311 314 319 321 321 322 323 323 323 322 321 322 321 320 320 320 320 320 321 321 321 321 321 321 321 321 322 322 322 322 321 321 320 320 320 320 319 319 320
297 300 298 301 304 309 313 319 320 320 321 321 321 321 320 321 321 321 321 320 320 320 319 319 319 320 320 320 320 320 320 320 320 320 319 319 319 319 319 319 319 319 319
299 299 296 296 301 304 309 313 317 319 320 320 321 321 321 321 320 321 321 321 321 321 321 321 321 321 321 321 320 320 319 319 319 320 320 320 320 320 320 320 320 319 319
296 297 295 294 296 301 303 306 311 314 316 317 318 318 319 319 319 320 320 320 320 321 321 320 320 320 320 321 321 321 321 320 319 318 318 317 317 317 318 317 317 316 315
293 299 297 295 295 296 299 303 304 308 308 310 312 312 314 315 315 316 317 317 317 318 317 316 316 317 317 318 319 319 318 318 317 316 316 315 314 315 314 314 313 313 311
292 293 300 297 296 295 297 299 299 301 301 305 303 305 309 311 308 310 311 311 311 311 310 310 310 309 311 311 312 313 313 312 311 309 308 308 307 306 306 306 306 305 303
291 292 295 296 297 297 296 295 296 298 301 303 300 304 305 304 302 304 305 305 305 306 305 305 304 304 304 303 305 306 306 306 306 304 302 300 299 299 299 300 298 297 296
288 290 291 292 294 296 299 298 298 299 299 302 301 301 300 299 299 299 300 301 301 300 299 299 300 298 298 298 298 299 300 300 299 298 295 294 294 294 295 293 294 294 293
286 286 288 289 290 291 293 293 294 295 297 298 297 296 297 295 294 294 295 296 294 293 291 291 292 292 293 293 293 294 294 294 293 292 291 291 292 292 292 291 291 291 291
288 289 289 289 290 291 292 293 293 294 295 296 295 295 293 293 292 292 291 292 292 291 290 291 291 291 292 290 291 291 291 291 291 290 290 290 289 289 289 289 289 289 288
288 289 289 289 289 291 291 292 292 293 293 293 293 292 290 290 288 289 289 290 289 290 290 290 290 289 289 288 289 289 289 289 288 289 289 288 286 285 285 285 285 285 284

GFSMW_850_thetae_093.txt.gz
Theta_e
317 318 319 320 320 320 322 328 333 338 335 340 335 331 332 331 332 332 330 326 327 330 329 328 327 327 327 327 326 326 324 324 325 323 322 322 322 322 320 321 321 321 322
317 317 317 319 320 321 322 328 332 337 335 334 338 335 333 334 331 330 326 324 328 328 328 327 328 327 327 327 326 324 323 324 325 323 323 323 321 321 322 320 320 321 321
318 318 318 318 320 321 324 327 330 335 335 333 335 335 334 333 333 327 327 326 328 328 328 326 327 327 327 327 326 325 322 323 324 322 322 322 322 322 322 322 320 321 320
322 321 319 318 319 320 325 328 330 335 334 334 335 336 332 331 329 328 326 325 325 327 328 327 328 328 327 326 326 325 322 322 323 323 322 321 320 322 323 321 321 321 321
324 323 321 319 318 319 324 329 331 334 334 335 335 334 333 333 330 327 327 326 326 326 327 327 327 327 324 325 325 323 321 322 323 323 323 321 323 322 323 322 322 321 321
325 325 322 321 319 320 327 331 332 333 334 334 334 334 333 331 328 330 327 327 328 326 326 326 326 325 325 326 325 323 321 323 324 323 321 322 322 323 323 322 322 322 322
326 326 325 322 321 322 329 332 332 333 334 333 333 333 332 329 328 329 327 327 325 326 325 326 325 324 325 325 325 321 324 324 324 323 323 323 323 323 322 321 321 322 321
327 328 327 327 326 327 331 329 331 332 333 333 332 331 330 328 329 328 325 325 326 325 325 325 325 324 324 325 324 323 324 323 323 323 322 321 322 322 322 321 321 320 320
324 329 327 327 329 331 328 325 331 332 332 332 331 329 328 328 327 326 325 326 325 325 324 325 325 324 325 324 321 323 324 324 323 323 323 322 321 320 322 323 321 320 319
321 323 328 326 330 329 325 326 330 331 330 330 329 327 327 326 325 324 324 325 324 324 323 324 324 324 324 324 322 323 324 324 323 323 323 322 320 320 320 322 321 322 321
317 317 324 328 330 329 325 324 329 330 329 328 326 326 326 325 324 324 323 324 324 322 322 322 321 322 323 324 324 324 324 323 319 320 319 317 318 320 319 318 318 315 320
313 313 321 325 328 326 324 325 328 328 326 326 325 326 326 324 323 323 323 324 323 322 323 322 322 322 322 321 320 318 315 314 319 320 316 316 320 319 318 315 314 316 316
311 312 314 321 324 323 324 324 325 326 325 324 323 324 326 324 324 323 323 324 323 323 323 322 322 321 320 318 319 319 320 321 322 321 314 312 313 317 316 312 313 313 313
306 307 308 312 320 322 322 322 324 324 324 322 323 324 325 324 322 322 323 324 323 323 323 322 321 322 321 321 321 320 320 322 322 320 316 316 318 314 313 313 313 312 314
303 303 303 306 311 319 320 321 322 323 322 322 322 322 324 323 323 322 322 322 323 323 323 323 322 323 322 322 322 322 322 322 322 321 319 318 316 315 313 312 312 313 316
301 299 301 303 305 312 318 320 323 324 324 322 323 322 323 321 322 322 322 322 322 322 323 322 322 322 322 322 322 322 323 322 322 322 321 319 319 318 315 314 315 315 320
298 295 297 298 300 304 311 314 319 323 324 324 321 321 322 321 320 320 320 321 321 321 321 323 323 323 323 322 322 322 322 322 322 322 322 323 322 321 321 321 320 320 320
293 293 295 296 298 299 306 309 314 321 321 322 323 322 322 322 322 322 323 323 321 321 320 320 320 321 321 322 321 321 321 322 321 321 320 320 320 320 320 320 320 320 319
291 291 293 294 298 296 300 302 307 316 318 319 320 320 320 320 321 322 321 321 321 322 321 320 320 320 320 320 320 320 320 320 319 319 320 320 320 319 319 319 318 317 316
291 291 291 294 295 294 296 300 298 303 307 308 311 315 316 318 318 318 319 319 319 320 319 319 318 318 318 319 320 320 319 319 318 317 316 316 316 317 316 313 313 311 309
291 291 290 292 294 294 294 295 296 295 295 297 298 304 306 310 309 308 309 308 308 309 309 309 308 308 310 311 311 311 313 311 311 309 308 309 307 309 308 311 306 306 303
290 291 290 289 291 292 296 295 294 292 293 297 295 298 297 300 301 300 301 301 299 302 301 302 302 302 302 304 305 305 306 305 305 304 302 300 298 300 300 300 298 298 297
287 289 290 290 290 291 290 293 291 293 294 295 296 297 297 301 299 297 297 301 292 296 296 297 297 297 296 297 298 299 299 300 300 298 296 295 295 295 295 295 295 294 294
287 287 288 290 289 289 291 289 291 290 297 293 294 296 297 298 298 299 297 299 298 297 295 293 293 293 294 293 293 293 294 293 294 293 292 292 292 293 292 291 291 291 290
285 285 285 286 286 287 288 288 288 288 290 289 290 288 291 292 294 294 295 294 292 293 292 291 292 291 291 290 290 290 290 290 289 289 289 289 289 289 288 288 288 287 286
283 284 285 287 286 288 288 288 289 288 288 289 288 287 287 288 289 289 289 288 289 290 290 289 289 289 289 288 288 288 288 288 288 288 287 286 284 283 282 282 283 284 284

GFSMW_850_thetae_096.txt.gz
Theta_e
316 317 319 320 320 320 319 321 327 334 330 335 337 339 342 340 337 332 330 330 329 328 328 332 330 330 329 329 327 327 327 325 324 325 324 322 321 320 321 322 321 319 318
316 316 316 318 319 320 320 321 328 333 332 334 337 336 340 339 338 333 330 330 335 330 328 327 329 329 328 328 328 325 327 325 324 325 323 323 321 320 320 320 321 321 321
317 318 318 318 318 319 320 321 327 334 334 334 337 334 337 336 335 337 331 333 335 333 326 327 329 329 328 326 325 327 326 324 324 324 322 322 321 321 320 320 320 321 321
323 323 322 321 318 320 320 322 323 328 334 336 337 333 335 334 333 332 334 331 328 327 326 326 328 328 327 327 326 326 325 324 324 324 322 321 321 320 322 321 320 320 320
325 325 324 323 322 319 320 322 323 327 334 334 335 334 335 334 333 332 331 331 329 327 326 328 327 327 327 326 327 326 327 324 324 324 323 320 320 319 319 322 321 321 320
325 326 325 324 322 320 320 323 325 328 333 335 334 337 336 335 332 332 330 328 327 325 325 328 327 327 327 327 328 326 325 323 323 324 323 320 322 322 321 319 320 321 320
326 328 327 326 323 321 319 326 326 330 335 335 333 338 336 333 334 331 329 328 328 326 327 326 326 327 326 327 326 326 324 324 322 322 322 320 321 323 324 323 321 319 320
323 324 329 328 326 322 327 328 330 331 336 335 336 335 334 333 332 330 328 328 327 327 326 325 326 324 325 326 325 324 325 325 321 323 322 322 320 322 323 322 323 323 323
321 321 324 327 328 332 332 332 332 332 334 334 333 332 332 331 330 327 327 328 325 326 326 325 325 325 325 325 324 324 325 324 322 323 322 322 324 322 323 322 321 321 321
318 319 319 324 330 331 331 330 329 332 333 332 332 331 330 329 327 327 327 325 326 325 325 325 325 325 325 324 324 324 325 322 323 323 321 323 322 320 319 321 322 321 322
314 313 317 324 329 330 329 326 331 332 332 331 330 329 327 326 326 326 324 324 325 324 324 324 323 325 325 325 324 324 323 321 323 323 322 322 322 321 321 317 314 320 322
311 309 316 319 324 325 326 325 329 330 330 329 328 326 325 325 324 325 323 324 323 323 322 322 322 323 324 324 324 324 324 324 324 324 323 322 322 322 320 317 317 316 318
307 305 312 314 317 322 324 323 326 328 328 327 326 324 324 324 323 323 323 323 323 321 321 321 321 321 323 324 324 323 321 322 323 324 322 320 318 319 317 316 318 319 318
305 301 303 308 311 316 320 322 324 326 326 326 325 323 323 323 322 322 323 323 322 323 322 322 322 321 322 322 322 322 321 320 316 315 318 320 321 318 316 315 317 318 318
301 299 297 300 306 310 316 320 323 324 324 323 323 324 324 324 323 324 324 324 323 323 322 322 322 321 321 320 319 319 319 319 319 321 322 322 317 316 315 314 314 313 313
296 295 294 296 300 304 307 312 319 322 323 323 322 323 323 325 324 323 323 323 324 323 323 323 322 322 321 321 321 321 320 320 320 320 321 322 318 317 317 318 317 316 314
292 292 291 293 295 300 303 306 309 316 321 322 322 322 324 323 324 323 322 322 323 323 323 323 323 322 322 321 322 322 321 321 321 321 321 320 320 320 319 318 317 316 315
290 289 290 291 293 296 301 302 303 308 314 322 322 322 321 320 320 321 322 321 321 322 323 322 323 323 323 322 322 322 321 321 321 321 321 321 321 321 321 321 320 319 319
290 290 290 290 292 294 297 301 299 300 305 312 318 319 320 321 320 320 320 321 320 321 321 321 320 320 321 321 321 321 321 321 320 320 320 320 321 321 320 320 320 320 318
289 291 291 291 292 292 294 298 298 297 295 298 305 307 311 315 318 319 319 319 319 319 318 318 318 319 319 319 320 320 319 319 319 318 318 319 318 318 317 316 314 312 310
289 291 291 291 290 291 293 294 295 295 293 293 298 301 301 302 305 308 311 314 314 315 313 311 309 309 311 313 314 314 313 312 311 308 307 308 309 309 310 309 308 305 302
288 289 290 290 291 290 289 291 292 292 293 297 297 296 296 294 294 295 296 298 301 302 302 302 300 300 300 302 304 304 304 302 304 303 300 299 300 300 301 301 299 299 297
286 287 288 288 289 290 290 289 288 290 292 295 296 297 298 296 294 296 293 292 294 296 295 297 298 298 296 295 299 301 300 300 299 297 296 296 296 296 295 293 293 294 293
285 286 287 287 287 288 289 288 288 290 290 292 293 294 295 295 296 296 295 292 292 296 289 292 294 292 292 294 291 294 292 292 293 292 291 291 292 292 292 291 290 289 289
284 284 284 284 285 287 288 289 288 290 290 289 289 290 290 292 291 292 291 291 290 291 290 289 289 291 289 287 288 288 290 291 291 290 288 288 288 287 287 287 287 286 286
283 283 282 284 284 285 285 286 286 288 288 287 288 287 286 287 287 288 288 288 289 289 289 289 290 289 288 288 288 289 289 289 289 290 289 286 285 284 283 284 284 283 282

GFSMW_850_thetae_099.txt.gz
Theta_e
318 317 316 318 319 319 319 320 319 324 339 340 338 338 337 335 338 334 335 330 335 332 331 330 334 332 331 330 329 327 327 327 327 326 323 326 324 323 322 322 321 320 317
313 315 315 315 316 319 320 321 320 323 335 335 333 335 337 334 337 336 336 332 332 335 337 333 331 330 329 329 329 328 327 327 327 324 323 325 323 322 322 321 321 321 318
313 314 314 315 316 316 320 320 321 323 335 336 336 337 337 335 335 334 333 335 333 335 336 333 330 329 329 328 328 328 327 327 326 323 324 322 322 321 321 321 321 320 319
315 317 323 323 322 319 318 320 321 327 332 333 332 331 330 333 333 334 333 333 334 333 331 330 329 327 326 327 327 328 326 326 326 323 323 322 321 320 321 320 320 320 321
324 327 326 325 324 323 321 320 320 329 332 333 330 328 330 333 330 332 332 332 332 330 332 331 328 326 326 326 328 325 325 325 325 324 323 322 321 320 320 321 321 320 320
326 328 328 327 326 325 322 321 323 326 329 330 326 325 330 333 333 332 331 331 330 330 329 329 326 325 325 327 328 327 325 326 326 323 323 322 321 320 320 320 320 319 320
321 323 327 328 328 326 325 321 323 326 329 326 327 328 333 332 333 333 332 331 329 328 326 328 326 325 327 325 324 326 326 326 325 323 323 322 321 320 320 318 320 320 320
319 320 323 326 329 330 325 321 323 324 326 324 329 334 334 334 333 333 333 331 329 326 327 326 326 324 325 326 326 325 326 325 326 323 324 322 321 321 320 319 319 320 321
313 317 322 326 331 332 331 328 329 329 328 331 332 334 335 333 333 331 331 329 327 326 327 326 325 326 327 327 326 326 325 326 325 324 324 323 321 321 323 322 323 323 320
311 313 316 321 325 328 329 331 331 332 331 331 333 332 333 333 331 330 329 328 326 327 326 326 327 325 325 326 325 326 326 325 325 324 323 323 320 322 322 323 322 321 322
306 305 311 314 318 324 324 325 328 329 331 331 332 332 332 331 330 328 327 326 326 324 325 325 325 324 325 325 325 325 324 324 325 325 323 322 320 320 322 322 322 321 321
303 302 305 309 315 320 324 323 326 330 332 332 331 330 330 328 326 326 325 325 324 324 323 323 324 323 324 325 325 325 323 324 325 324 323 323 321 320 323 322 321 320 319
300 300 302 303 307 311 318 321 324 327 329 330 330 329 327 326 324 324 324 323 323 322 322 322 322 322 324 324 324 324 324 325 324 323 322 322 320 321 323 321 320 320 318
297 296 297 300 302 306 311 318 321 325 325 327 327 327 325 323 323 323 322 322 322 321 321 321 321 321 322 324 324 324 324 324 323 322 323 321 321 322 321 319 318 319 318
294 293 293 295 299 302 307 311 317 322 324 324 325 324 323 323 322 322 322 322 321 322 321 321 321 321 321 322 323 324 324 323 322 323 323 323 321 316 317 317 319 317 315
292 291 290 293 295 297 300 306 311 318 322 323 323 324 324 324 323 322 323 323 323 323 322 322 321 321 321 321 320 320 323 322 321 322 320 317 319 320 319 318 317 317 317
289 289 289 290 292 294 296 300 305 310 316 321 323 323 324 323 324 324 324 323 323 323 323 322 321 321 321 321 321 320 319 319 319 319 319 319 320 320 317 317 319 318 318
288 289 290 290 291 293 295 297 301 306 309 310 316 320 322 324 324 324 324 324 322 323 323 322 321 321 322 322 320 320 320 320 319 320 320 320 320 320 318 318 317 317 317
288 289 289 290 291 292 293 296 298 301 303 302 305 310 317 322 322 321 322 321 321 321 321 320 319 320 321 322 321 321 319 318 319 319 320 318 319 319 318 319 319 319 318
288 288 289 290 291 291 292 293 295 297 298 298 297 299 303 310 318 318 317 317 316 317 316 316 316 317 318 319 316 316 319 319 319 317 318 318 317 318 318 317 315 314 312
287 288 289 289 289 290 292 292 292 293 293 295 295 297 296 295 300 307 306 305 305 304 305 307 308 309 311 313 313 312 314 314 315 314 312 312 310 313 312 311 309 307 305
287 288 288 288 289 290 290 290 290 291 293 294 295 297 296 294 294 298 299 299 299 299 298 298 298 301 300 301 302 304 306 304 306 304 303 301 302 302 304 304 303 302 301
286 286 287 287 288 289 289 289 288 290 293 294 294 294 295 294 295 296 296 298 297 296 295 295 295 292 294 295 295 297 298 300 300 298 296 297 299 299 297 297 295 296 298
285 286 287 287 287 288 288 287 288 290 291 291 291 292 294 293 293 293 294 294 294 294 295 294 291 291 291 292 292 291 293 292 294 293 292 292 293 294 293 293 293 292 291
284 285 285 286 286 286 287 287 288 288 288 289 288 289 290 291 292 291 291 290 289 291 291 289 291 291 290 290 291 290 291 291 291 291 292 291 289 289 289 289 288 288 288
284 285 285 285 285 285 285 285 286 287 288 287 287 286 286 286 286 287 287 287 287 288 288 288 289 287 286 286 289 290 289 287 287 289 288 287 287 286 285 284 283 283 283

GFSMW_850_thetae_102.txt.gz
Theta_e
313 314 315 317 318 318 318 319 319 319 319 320 323 337 336 337 336 334 333 337 336 333 333 332 333 333 332 330 329 329 327 328 327 326 326 325 327 325 327 326 325 322 320
311 313 313 313 314 315 316 318 319 319 319 319 320 332 332 336 336 336 335 337 338 337 336 334 334 333 330 330 329 328 329 329 327 327 326 325 325 325 326 326 323 321 320
311 312 313 313 313 313 314 315 318 319 319 320 323 333 333 333 336 336 334 336 337 335 333 333 332 331 329 329 328 327 328 327 326 327 326 324 323 324 323 323 322 321 320
312 311 312 312 319 321 319 316 316 319 320 321 323 330 332 332 329 335 334 334 333 332 332 332 331 331 329 328 327 326 326 327 327 326 326 324 324 323 322 322 321 321 320
316 323 325 325 325 324 324 321 318 320 320 321 323 333 333 330 331 334 333 333 332 332 332 330 330 329 328 327 327 325 326 327 327 326 326 323 322 323 322 322 322 322 320
318 323 325 326 326 325 325 325 323 322 323 322 327 333 332 332 331 333 333 333 331 331 330 330 329 328 328 327 327 326 326 326 326 326 326 323 321 321 321 321 321 321 320
315 318 325 328 329 327 326 326 324 327 328 329 330 334 332 330 328 330 330 328 330 330 330 329 328 327 327 327 326 325 327 325 326 324 326 324 322 321 320 320 320 319 321
311 314 316 321 326 328 327 325 329 325 329 329 331 333 330 329 331 332 331 329 331 331 329 329 327 326 325 324 324 325 325 325 324 326 325 323 322 321 320 320 319 320 320
305 312 314 318 323 323 326 328 332 339 333 329 330 329 330 332 333 332 330 331 332 331 329 326 326 325 324 324 325 326 326 324 324 325 326 324 323 321 321 320 320 319 320
302 307 309 313 317 320 323 326 329 331 331 327 328 327 330 331 332 334 333 331 330 329 327 326 326 325 325 324 324 325 324 325 324 325 325 325 323 321 320 320 320 319 318
297 298 305 309 313 317 321 324 327 329 331 330 328 328 330 331 334 336 331 329 328 328 326 327 326 324 326 324 324 325 326 326 325 324 325 325 324 321 321 319 321 320 322
295 296 300 305 309 313 318 321 325 327 328 329 328 328 329 332 332 330 329 327 326 325 326 325 324 324 324 325 325 324 325 326 325 325 325 325 324 322 319 323 322 322 322
293 293 296 299 303 305 312 317 322 325 328 329 330 330 331 330 329 328 326 324 324 323 322 322 322 323 323 324 324 324 325 325 325 324 325 324 324 323 321 322 322 322 321
291 291 292 295 299 302 306 312 317 319 322 326 327 329 329 328 327 325 323 322 322 321 322 321 321 321 321 322 323 323 324 324 324 323 324 324 324 323 320 322 320 322 320
290 290 290 292 295 298 302 307 312 316 317 324 325 325 325 324 323 322 322 321 321 321 321 321 321 321 321 321 321 324 324 323 323 324 323 324 324 324 320 319 319 321 321
289 289 290 291 292 295 298 301 305 310 311 319 324 324 324 324 323 322 321 322 321 322 321 321 321 321 321 321 321 322 324 323 324 324 324 323 322 321 320 320 320 319 320
287 287 288 289 290 293 295 297 300 303 308 311 319 322 324 324 323 322 322 323 323 322 322 321 321 321 321 321 320 320 321 321 323 323 322 322 321 321 320 320 320 318 316
287 288 288 289 290 292 294 296 299 301 303 307 309 314 316 321 323 324 324 322 322 322 322 321 321 321 321 321 320 320 319 319 320 320 320 320 320 319 319 320 318 318 317
287 288 288 289 290 291 292 294 296 298 300 302 303 303 304 308 315 315 320 322 321 321 318 319 319 320 320 321 321 319 318 319 319 319 319 319 319 318 319 319 318 317 318
287 288 289 289 290 290 291 293 293 294 294 295 297 299 300 299 301 304 306 311 317 319 316 315 315 317 318 320 320 319 318 318 317 317 317 318 318 318 318 317 316 317 316
287 288 289 289 289 289 290 291 291 291 292 293 294 296 297 299 294 294 298 302 301 309 310 309 309 309 311 311 310 311 313 313 313 312 312 311 311 313 312 310 311 312 310
287 288 288 288 289 290 290 290 289 290 292 293 294 293 294 295 295 296 295 295 296 298 301 301 300 301 302 303 304 306 307 306 307 304 301 302 304 305 304 303 303 303 302
286 287 288 288 288 289 289 288 288 290 291 292 293 293 294 293 293 293 295 296 294 293 294 295 295 293 294 296 298 299 301 301 303 300 298 299 299 299 299 298 298 297 297
286 286 287 288 288 288 288 287 288 290 291 291 291 291 292 292 292 293 291 292 292 290 289 290 290 291 291 292 293 295 295 296 295 294 294 294 294 295 294 293 293 293 293
285 285 285 285 285 286 287 287 287 288 289 289 288 288 289 290 291 290 289 288 287 288 288 287 288 289 287 287 289 291 292 293 293 294 293 293 293 292 291 291 290 289 288
284 285 284 284 284 284 285 285 285 286 287 287 287 287 287 287 288 288 288 288 287 287 287 286 287 286 286 287 288 288 288 288 289 291 290 289 289 289 288 288 286 286 286

GFSMW_850_thetae_105.txt.gz
Theta_e
311 311 312 312 313 313 315 317 317 317 317 330 326 331 332 328 332 337 332 331 331 328 329 331 333 334 334 333 333 330 329 328 329 328 327 327 326 326 326 326 325 326 326
311 311 311 311 311 312 313 314 316 317 317 318 318 322 322 324 325 335 335 333 334 334 332 332 334 335 335 334 333 330 328 327 329 327 326 325 326 326 327 326 325 326 326
314 312 311 311 311 311 312 312 313 315 317 318 320 322 329 329 335 336 334 334 334 335 334 335 334 334 333 332 330 329 328 327 327 325 326 325 324 324 325 325 325 326 325
317 317 314 312 312 312 312 314 313 314 316 318 319 321 321 323 327 331 329 332 332 335 335 334 334 333 332 331 330 329 328 327 326 327 327 326 324 323 324 325 323 326 324
313 313 317 321 323 322 322 321 317 315 315 316 319 320 323 322 322 331 329 327 330 334 334 334 333 332 331 330 330 328 327 327 326 326 325 326 326 325 323 323 323 324 322
309 308 310 314 322 325 325 323 321 318 316 316 319 322 321 324 327 333 331 329 331 334 331 333 331 331 330 329 329 328 327 327 326 325 325 326 325 324 324 324 323 323 321
305 304 304 309 318 325 325 325 323 324 322 320 319 322 327 326 326 330 331 330 330 333 332 331 331 330 329 329 328 328 327 327 327 325 325 325 326 325 324 323 323 322 321
305 300 302 305 311 322 325 325 329 335 335 332 332 327 327 329 331 333 333 329 328 331 333 330 330 329 329 329 328 328 328 328 325 325 326 326 325 325 322 322 323 321 321
306 298 299 303 311 317 322 325 328 334 336 336 338 334 331 330 332 330 329 329 331 329 329 329 329 329 328 327 326 325 326 326 324 324 325 324 326 325 322 322 322 322 320
300 295 296 302 307 313 319 323 326 330 334 334 337 335 330 328 329 327 329 332 330 330 330 331 330 328 327 325 324 324 324 324 324 324 325 326 325 324 324 322 321 321 320
294 293 293 301 305 309 315 319 323 325 329 333 336 333 328 327 326 328 329 331 331 329 328 328 328 326 324 324 323 323 323 324 324 325 325 324 325 325 323 321 321 321 319
292 291 293 298 299 304 312 315 320 324 325 329 327 328 327 327 327 327 329 331 330 328 327 327 326 324 323 323 322 323 325 325 325 325 325 324 324 324 325 322 321 320 320
291 291 291 294 297 301 305 309 315 320 323 325 326 326 326 327 326 329 330 328 326 325 325 325 324 324 323 323 322 323 324 324 325 325 325 325 324 325 324 323 321 320 318
289 289 290 291 294 298 301 305 309 316 322 324 327 328 328 328 329 328 328 326 324 323 322 320 321 323 321 322 321 321 322 323 323 323 325 325 325 324 324 323 321 319 320
288 288 288 289 292 295 298 302 306 311 315 317 323 325 325 325 325 324 323 322 322 321 320 320 322 322 320 320 321 321 321 322 323 324 325 325 325 324 324 324 321 322 323
287 287 288 288 289 291 295 298 302 305 308 310 312 321 324 325 324 323 322 321 321 320 320 319 319 321 320 320 320 320 321 322 323 324 324 324 324 323 323 324 322 322 321
286 287 287 288 288 290 293 295 298 302 303 304 309 312 319 322 323 323 322 321 321 320 321 322 321 321 321 320 320 320 320 320 322 323 323 323 323 323 323 321 321 322 321
286 286 286 288 288 291 292 293 296 298 301 303 304 307 307 312 315 318 320 321 320 321 321 321 321 321 321 321 321 320 320 319 319 319 321 323 322 321 322 322 321 320 320
287 287 287 287 288 289 291 293 295 295 296 298 299 301 302 304 304 306 307 309 308 317 317 318 319 320 320 320 320 320 319 318 319 319 318 318 318 321 321 320 320 320 320
287 288 288 289 290 289 290 292 293 293 294 294 295 296 298 300 301 301 301 299 300 302 304 312 312 316 319 319 318 316 318 317 318 318 318 317 318 319 319 318 318 317 316
287 288 289 288 288 289 290 290 290 291 291 293 295 296 295 296 296 298 300 298 297 294 295 300 305 307 307 313 311 310 312 313 314 313 313 316 316 316 316 316 316 315 313
287 287 288 288 289 289 290 290 290 290 292 293 294 294 294 294 294 295 295 296 298 295 292 291 295 296 298 300 302 304 306 305 307 308 306 305 306 306 308 309 307 305 304
286 286 287 287 287 288 288 288 288 290 291 292 292 293 293 293 294 294 293 292 291 292 292 289 289 291 292 293 295 297 298 301 301 299 299 299 300 300 300 298 298 298 299
285 286 286 287 286 286 287 287 287 288 290 290 290 290 291 292 293 293 293 291 291 290 290 289 289 288 289 289 291 292 293 294 294 292 293 295 295 295 294 294 294 294 294
285 285 284 284 284 285 286 286 287 287 288 288 288 288 288 288 289 289 289 288 286 287 287 287 288 289 288 287 288 290 289 291 292 292 292 293 293 292 292 292 292 291 290
283 283 282 282 282 282 283 283 283 283 284 285 286 286 286 286 287 287 286 286 286 286 285 286 286 286 286 286 287 288 288 288 288 290 290 289 288 288 287 286 286 286 286

GFSMW_850_thetae_108.txt.gz
Theta_e
309 308 309 310 310 310 311 312 313 314 314 315 316 323 334 334 330 328 334 328 326 324 324 325 328 331 331 331 331 332 331 330 329 328 327 326 327 326 326 326 326 326 325
307 307 309 311 311 311 311 311 311 312 313 314 315 317 318 334 326 324 333 333 331 328 326 325 326 330 331 332 332 332 331 329 328 328 328 327 327 327 326 326 325 326 326
310 313 314 313 312 311 311 310 311 311 312 314 315 322 327 334 334 330 328 334 334 332 329 329 328 328 330 332 333 332 330 329 327 327 327 326 325 325 324 325 326 325 326
313 313 314 315 315 315 314 312 311 311 312 312 315 323 328 327 327 324 321 328 335 334 332 332 332 331 331 332 332 331 330 329 327 326 327 327 325 324 324 324 326 326 325
307 309 311 312 314 318 320 318 314 313 313 313 314 317 325 322 320 319 325 324 334 334 332 332 334 332 332 333 332 331 329 328 327 327 327 326 326 325 323 324 325 325 325
303 305 307 313 314 316 319 322 319 316 316 316 314 316 321 320 322 325 325 326 332 333 330 331 333 332 332 332 331 330 329 329 328 327 327 327 324 325 325 324 323 324 324
299 300 302 308 310 312 315 321 326 324 318 315 318 323 324 326 321 325 327 327 332 330 327 328 333 333 330 332 330 329 329 329 327 327 327 327 325 325 324 325 324 323 323
295 296 300 299 303 307 313 318 324 330 333 328 327 333 330 329 331 329 329 329 331 331 327 327 329 332 329 330 329 329 329 328 328 328 327 327 326 324 323 325 324 322 322
293 293 296 297 301 304 308 316 320 326 331 337 334 333 334 335 333 332 332 332 331 332 329 329 332 332 329 329 329 328 328 328 327 327 327 327 328 324 323 324 324 324 322
292 291 294 296 299 299 310 312 318 323 327 331 333 333 333 335 331 332 332 332 331 327 330 329 331 331 329 328 329 328 327 327 326 324 326 327 324 322 325 324 324 324 323
290 290 292 292 296 300 307 313 316 321 324 328 329 333 332 335 332 333 330 329 328 329 329 327 328 329 328 327 326 325 324 323 322 324 323 323 323 323 324 324 324 323 322
289 289 290 290 294 296 300 305 311 315 320 323 328 331 333 335 332 330 329 329 328 329 328 329 328 328 327 325 324 322 323 323 323 322 323 324 323 324 324 323 324 324 323
288 288 289 289 291 296 300 304 308 311 316 321 326 328 330 331 330 329 327 326 326 328 330 328 327 326 324 323 322 322 322 322 324 325 323 325 324 323 324 325 324 324 323
288 287 288 288 289 292 296 300 303 306 313 316 323 324 325 326 327 327 326 327 328 326 325 324 324 323 321 321 321 320 320 321 321 322 321 323 324 324 324 324 324 323 323
287 286 286 287 289 291 294 299 301 304 308 312 319 323 325 325 327 326 325 323 323 322 322 320 319 318 319 321 320 320 320 320 320 321 321 322 323 321 324 324 324 323 323
286 286 287 287 287 289 291 296 297 300 303 307 306 310 312 319 324 323 322 321 321 321 320 319 319 319 318 320 319 319 320 320 319 321 323 323 322 322 325 324 325 324 323
285 285 286 286 286 288 290 293 295 298 300 301 304 307 310 307 313 319 320 321 320 320 319 318 318 317 318 319 319 318 320 320 320 319 319 323 323 323 323 324 323 323 323
285 285 286 287 288 289 291 292 295 295 296 299 302 302 305 304 306 308 313 316 316 316 315 313 317 316 317 319 319 320 320 320 319 319 318 319 322 322 323 323 323 322 321
286 286 286 287 289 290 289 291 293 294 293 294 295 297 297 302 302 302 304 304 305 308 309 309 308 311 314 316 319 319 319 319 318 318 318 317 318 318 322 322 322 319 320
286 288 289 289 290 290 290 290 291 291 293 293 292 293 295 296 297 299 299 300 300 301 301 298 296 301 307 304 308 312 313 315 315 316 317 317 318 316 314 314 315 316 317
286 288 288 288 288 289 289 290 290 290 291 292 294 294 295 294 294 296 296 297 297 298 298 300 295 294 296 298 301 303 306 308 308 311 312 313 314 317 317 316 317 318 317
286 286 287 286 287 287 288 288 289 288 290 292 293 293 294 294 293 293 293 294 295 295 294 293 294 294 292 294 295 297 299 300 303 303 302 302 303 307 308 310 311 314 311
284 285 286 286 286 286 286 287 286 288 289 290 290 290 291 292 293 293 292 292 292 292 292 292 292 290 290 291 291 292 294 294 296 294 294 294 297 299 301 299 299 298 299
284 283 283 283 283 283 284 284 285 286 287 287 287 288 289 289 290 290 290 290 289 289 289 290 290 290 291 290 290 290 291 290 291 291 292 293 293 294 293 294 294 295 295
282 282 282 282 282 282 282 282 282 282 283 283 284 285 285 286 287 287 286 286 285 286 287 286 287 288 288 287 288 289 289 289 289 291 291 291 290 290 290 290 290 290 290
281 281 281 281 281 281 281 281 281 281 281 281 281 281 281 282 283 284 285 285 284 285 285 285 285 285 284 286 288 288 288 288 288 290 289 289 288 288 287 287 287 286 286

GFSMW_850_thetae_111.txt.gz
Theta_e
306 306 306 307 307 309 310 310 310 311 311 313 313 314 315 322 333 334 330 332 334 328 323 323 322 326 328 328 331 333 333 335 331 331 329 329 329 327 326 325 325 326 326
308 309 308 308 309 310 310 311 311 311 310 311 313 314 314 315 323 332 331 330 331 334 326 324 323 323 327 328 329 331 332 334 331 329 330 329 328 328 326 326 326 326 326
309 310 310 311 312 314 313 311 311 311 310 310 312 318 321 325 323 332 335 330 327 332 332 325 325 324 325 326 327 328 329 332 330 329 329 327 326 326 326 326 325 326 324
304 304 305 306 309 312 312 313 312 311 311 310 310 322 321 329 330 318 322 331 326 328 333 331 328 326 326 327 327 328 329 331 330 329 328 327 326 326 325 325 325 325 325
300 299 299 302 307 310 312 314 314 314 312 311 312 313 322 321 328 320 319 327 326 326 327 333 331 329 328 327 327 329 331 330 329 328 328 326 326 326 325 325 324 324 324
296 298 298 300 303 307 310 312 314 317 316 313 314 314 316 326 330 327 322 326 331 326 328 331 333 332 332 331 331 331 332 330 330 329 328 327 326 326 327 326 324 323 323
295 294 295 297 300 303 305 308 311 316 320 319 316 317 324 329 330 327 324 324 331 328 323 327 332 332 331 330 332 332 331 331 330 329 328 327 327 327 326 326 324 323 324
293 292 292 294 297 299 302 303 307 315 320 325 320 326 326 333 331 331 332 330 330 326 326 325 330 328 327 327 332 332 330 330 329 328 328 328 326 326 327 326 325 324 323
292 291 291 291 295 296 300 299 306 313 318 324 327 328 329 331 335 332 333 332 330 328 327 327 327 327 326 328 333 331 330 330 329 328 328 328 328 328 327 327 326 324 323
290 290 290 290 293 294 296 299 304 310 317 323 327 330 330 331 332 333 333 333 332 331 330 332 330 327 326 331 333 329 329 328 328 328 328 328 327 327 325 325 326 324 323
289 288 289 289 290 293 294 297 304 311 317 321 327 331 331 331 332 333 333 333 333 332 332 332 330 329 329 334 332 329 327 328 329 328 327 325 323 325 324 323 323 323 322
288 288 288 288 289 291 292 294 309 312 314 317 324 329 331 330 331 331 333 334 333 333 332 330 329 327 329 331 329 328 327 326 325 324 323 322 322 324 324 323 324 323 323
288 287 287 287 287 288 290 296 299 304 313 314 320 326 327 329 329 330 332 333 331 330 328 328 328 329 329 328 328 326 324 323 323 324 325 323 323 323 322 325 324 324 323
287 286 286 286 287 289 294 294 296 302 307 310 317 320 323 325 325 327 329 328 329 329 328 328 328 328 327 326 324 323 322 321 321 321 321 321 322 323 323 324 323 323 323
286 285 285 286 287 289 291 293 295 299 301 305 313 314 316 321 323 325 325 325 324 324 324 323 323 323 323 322 321 320 320 320 320 319 319 320 320 321 321 322 322 323 323
285 284 285 286 286 288 291 292 293 296 298 298 302 306 308 313 320 320 321 321 321 321 321 320 320 319 318 319 319 319 318 320 320 320 320 319 319 320 323 322 322 323 323
284 284 285 286 287 287 289 290 292 295 297 298 299 303 303 303 305 306 311 317 317 319 320 318 318 316 316 317 318 318 318 317 317 319 320 320 319 318 322 322 322 323 323
284 285 286 288 289 290 290 292 294 294 294 295 296 299 299 300 304 304 304 305 305 312 312 314 314 313 315 317 318 317 317 316 317 318 319 319 318 318 320 321 320 322 322
284 286 287 288 289 290 290 290 292 293 294 294 296 296 298 299 298 299 302 300 300 302 303 302 304 307 310 311 311 314 312 313 313 314 316 317 318 318 318 319 319 318 321
285 287 287 288 290 289 289 290 290 291 291 291 292 293 294 294 294 294 293 294 296 298 298 298 298 299 300 300 303 307 306 306 308 309 310 313 314 316 314 314 314 314 314
285 285 286 286 287 288 288 289 289 288 288 290 291 292 293 293 292 292 293 292 293 294 295 295 295 295 297 298 299 298 301 301 302 304 305 306 305 310 309 309 310 311 310
285 284 284 284 284 285 286 286 286 287 288 289 290 290 291 291 291 292 291 292 292 292 292 292 291 291 293 293 294 297 296 295 297 298 297 296 298 301 303 304 304 303 303
282 282 282 282 282 282 283 283 283 284 285 286 287 288 288 289 290 291 291 291 291 291 290 291 290 290 290 290 290 292 293 294 294 293 292 293 294 294 296 295 296 297 298
282 282 282 282 281 281 281 281 281 282 283 283 283 284 285 286 287 287 288 288 288 288 288 289 288 288 289 289 289 290 290 290 292 292 293 293 292 293 292 293 293 293 293
281 281 281 281 281 281 281 281 281 281 281 281 281 281 281 282 282 283 284 284 284 284 285 285 285 286 285 285 287 288 289 288 289 290 291 292 292 291 291 290 290 289 289
280 279 279 279 279 279 279 280 279 279 280 280 280 280 280 280 279 279 280 280 280 280 281 282 283 283 283 284 285 287 287 287 288 290 289 288 288 288 287 287 287 287 287

GFSMW_850_thetae_114.txt.gz
Theta_e
312 313 314 314 314 314 313 310 309 311 310 315 322 329 333 333 334 337 336 335 332 330 328 330 325 322 323 329 333 335 336 335 334 333 332 331 330 328 329 330 329 327 325
310 310 310 310 311 311 312 313 313 313 314 316 315 325 329 332 328 332 333 337 336 332 331 331 330 324 323 330 331 332 335 335 334 333 333 332 330 328 328 327 328 327 325
307 306 307 307 307 308 309 310 311 312 312 314 318 316 327 330 332 332 335 335 334 332 328 329 332 328 324 324 332 332 333 335 334 333 331 331 329 330 331 328 328 328 327
304 303 303 303 304 304 305 307 310 312 312 313 316 318 320 328 330 332 330 317 324 333 329 328 330 333 326 324 325 330 331 332 332 333 332 330 330 330 329 328 325 326 327
302 301 300 300 301 302 302 305 309 313 313 311 314 319 318 325 329 331 332 326 316 327 335 328 331 332 331 325 325 331 331 330 331 330 332 330 331 330 328 329 329 325 325
300 300 299 298 299 299 300 307 308 311 314 313 313 315 322 322 327 329 332 332 324 317 323 334 334 332 332 329 327 328 330 330 330 329 331 330 330 330 328 328 327 328 328
298 297 296 296 296 296 299 304 307 309 311 314 314 316 317 324 328 329 332 333 333 332 325 331 333 332 332 332 330 329 330 329 330 332 332 331 330 329 329 328 328 328 327
296 295 294 294 293 293 294 298 302 305 309 312 314 317 319 324 327 331 331 333 334 335 334 328 331 331 331 332 331 331 330 330 331 332 332 330 329 329 330 328 329 327 326
294 293 292 292 292 291 292 296 299 304 306 308 311 319 321 326 329 332 332 333 334 333 336 336 334 331 329 330 329 328 330 330 329 331 332 331 329 329 328 328 327 327 327
292 291 290 289 290 290 292 296 298 300 301 305 310 320 323 327 333 332 331 333 333 334 333 332 331 332 327 329 329 329 328 331 331 332 331 330 328 329 329 329 328 328 327
291 289 288 288 288 290 290 292 297 296 300 304 310 319 326 328 333 329 330 332 334 333 335 332 332 333 334 332 329 328 328 330 330 330 330 328 329 328 328 329 327 327 326
290 288 287 287 287 289 289 292 293 294 298 303 311 322 330 331 330 330 330 331 332 334 335 335 331 333 336 334 330 328 331 332 330 328 328 328 329 327 325 324 323 325 324
290 288 287 286 286 287 288 291 290 294 298 303 310 320 327 328 329 329 329 330 331 331 330 332 331 331 332 331 328 328 332 330 328 327 327 326 326 324 324 324 325 326 325
288 287 286 286 286 286 287 289 292 295 299 303 308 314 320 323 326 327 329 329 329 328 329 327 327 329 329 328 329 329 329 328 326 325 324 323 322 323 323 323 323 323 324
288 287 286 286 286 286 288 290 293 296 300 299 303 304 307 313 318 322 324 324 325 326 326 327 328 327 328 327 326 325 325 324 323 321 321 321 321 320 320 320 321 323 323
286 286 285 285 286 286 287 289 292 294 296 300 301 300 303 304 304 310 314 320 322 322 323 324 322 321 322 323 323 322 321 321 320 320 320 320 320 320 320 319 319 321 321
285 284 285 285 285 286 287 288 291 294 295 295 297 298 300 302 301 302 301 304 307 311 313 314 315 316 316 318 318 319 319 318 318 318 318 319 319 319 319 318 318 319 323
284 283 284 284 285 285 287 288 290 293 295 294 294 296 298 299 300 302 301 301 298 302 304 306 306 310 310 316 315 317 317 317 317 317 317 317 317 318 319 318 318 320 321
282 282 282 284 286 287 288 289 292 292 293 293 293 293 295 296 296 297 297 299 299 300 301 302 301 303 301 303 305 307 311 310 310 312 313 314 316 317 317 318 316 316 316
284 284 285 286 287 286 287 289 289 290 290 291 291 293 293 292 293 294 292 293 296 296 295 297 296 296 297 299 301 302 302 302 302 302 305 307 309 312 314 315 313 312 311
283 282 283 283 283 284 284 285 286 287 288 289 291 291 291 291 291 292 292 292 293 294 293 292 293 294 294 295 296 297 299 299 299 299 299 300 300 302 304 308 308 308 308
282 281 282 282 282 282 283 282 283 283 285 286 287 288 289 290 290 291 290 291 291 291 290 291 290 290 290 292 292 293 293 295 297 296 295 295 295 297 298 300 301 300 300
281 280 280 281 281 281 281 281 281 282 282 283 283 284 284 285 285 286 286 287 288 288 288 289 288 289 290 290 290 290 290 291 292 292 292 293 293 294 296 296 296 296 298
281 281 280 280 280 280 280 280 281 281 281 282 281 281 281 282 282 282 282 282 282 282 283 284 285 286 288 289 289 290 290 290 290 290 290 291 291 291 291 293 293 293 293
280 280 280 279 279 279 280 280 280 280 281 281 281 280 280 280 280 280 279 279 279 279 279 279 279 281 282 282 285 287 288 288 288 289 290 290 290 289 289 288 288 288 288
279 279 279 279 279 278 279 278 279 279 279 279 279 279 279 279 279 279 279 279 278 278 279 279 279 279 279 280 281 283 285 286 287 288 288 287 286 285 285 286 286 286 286

GFSMW_850_thetae_117.txt.gz
Theta_e
314 313 312 312 313 314 314 315 316 317 319 321 317 320 331 334 336 335 339 338 338 339 336 336 336 331 326 328 336 337 338 336 337 337 336 335 334 334 334 334 332 330 331
312 310 310 310 310 310 311 312 312 313 315 317 320 318 320 328 333 334 335 339 340 339 339 338 338 339 333 328 339 336 337 336 335 336 334 334 333 334 333 332 332 332 331
310 309 308 307 307 307 308 308 309 310 312 313 315 318 319 320 328 332 334 337 340 341 340 338 335 338 334 331 333 333 339 336 335 335 334 333 331 332 332 331 331 331 329
307 306 306 305 305 304 306 306 306 307 309 311 313 316 318 320 322 330 333 333 338 339 339 340 339 338 334 333 331 327 329 338 337 334 333 332 330 331 331 332 331 331 330
305 304 303 302 302 302 303 303 303 304 306 308 309 312 316 319 321 321 332 332 335 336 338 339 339 339 337 331 330 330 329 333 337 334 333 333 333 333 333 331 331 331 329
303 301 300 299 299 299 299 299 300 302 303 304 305 307 310 315 319 322 325 331 332 333 335 337 337 337 337 334 331 331 328 330 332 335 332 331 332 333 332 331 331 330 330
300 299 297 296 296 296 296 296 296 297 299 300 303 308 310 311 315 319 322 330 332 333 332 335 340 337 336 331 331 332 330 332 330 336 332 332 331 332 332 331 331 330 329
298 296 295 294 293 293 293 292 292 293 295 301 306 310 311 312 312 317 316 326 332 332 334 333 334 339 335 335 333 333 331 331 329 331 328 333 331 332 331 330 330 330 329
295 294 293 292 290 290 290 290 291 293 298 302 307 308 310 314 315 317 319 323 331 333 334 334 333 330 336 335 334 333 331 331 330 330 331 331 332 332 331 330 329 330 330
293 292 291 289 288 289 288 288 291 292 296 298 301 305 310 314 316 318 322 325 329 333 332 334 332 332 333 336 336 333 331 332 331 328 329 332 333 333 332 330 330 329 329
293 291 289 288 288 288 288 289 291 293 296 298 303 305 307 313 318 321 324 327 330 330 332 333 332 331 331 333 337 334 330 334 332 330 331 330 332 331 331 329 329 329 329
292 291 289 288 288 288 288 289 290 293 294 299 301 300 307 314 322 328 328 330 330 330 331 333 332 331 330 332 332 335 335 330 331 330 327 330 330 331 330 329 329 328 329
291 290 289 288 288 288 288 289 290 291 295 297 295 299 307 318 326 325 324 327 327 329 331 332 331 332 332 331 332 333 331 333 330 326 327 331 329 328 328 329 327 326 326
290 289 288 288 288 288 288 288 291 291 292 295 292 296 306 315 320 322 325 328 329 330 330 331 332 331 331 332 331 331 333 330 327 330 329 328 327 327 326 326 325 324 325
288 288 287 287 287 288 289 288 289 291 291 293 296 296 301 305 309 313 315 318 321 324 324 325 328 329 329 328 329 328 329 329 329 328 326 325 324 324 323 322 322 322 322
287 287 287 287 286 287 288 289 289 289 291 292 294 297 299 302 301 302 302 308 308 311 314 318 321 323 324 324 324 326 325 326 326 325 324 323 322 321 321 320 319 319 319
286 286 286 285 285 287 287 288 289 291 291 291 291 293 294 299 299 300 301 301 301 302 304 305 309 314 319 318 320 319 319 319 320 319 319 319 319 319 318 319 319 318 318
285 284 284 284 284 286 285 287 287 291 292 292 291 293 296 294 295 295 297 299 298 298 300 299 300 303 303 307 309 312 310 313 308 314 316 317 318 318 318 318 318 317 317
283 282 282 283 284 285 286 287 288 289 290 290 291 292 292 293 292 292 291 294 293 296 297 296 297 297 299 301 301 305 304 303 303 305 307 306 309 310 311 312 314 313 313
282 282 282 282 283 283 284 286 287 288 288 288 289 290 291 292 291 291 292 292 293 293 294 294 293 295 296 300 298 300 300 300 301 299 300 302 303 303 305 307 308 308 308
281 281 281 281 281 282 282 282 283 283 284 285 285 287 288 288 290 291 292 292 291 292 291 292 293 293 292 292 294 296 297 295 296 298 298 297 297 299 299 300 301 301 301
281 280 281 281 281 281 281 281 281 281 282 282 283 283 283 284 284 284 285 286 287 288 288 289 289 289 290 291 292 291 292 293 293 293 292 293 293 294 296 297 297 297 297
282 281 280 280 280 280 281 281 281 281 282 282 282 282 282 282 283 283 283 283 283 283 283 284 284 284 285 287 289 289 290 290 290 289 290 291 291 292 293 293 294 294 295
282 282 282 281 280 280 280 280 281 281 281 281 281 281 281 282 282 281 281 281 281 281 281 281 281 281 282 283 283 285 287 289 289 289 289 289 289 289 290 291 290 289 289
282 281 281 281 280 280 280 280 280 280 281 281 281 281 281 281 281 281 280 278 278 278 279 279 279 280 280 280 280 282 283 285 286 286 287 288 288 288 288 287 287 287 287
282 281 281 281 280 280 280 280 280 280 280 281 281 281 281 281 281 281 281 280 278 278 277 277 277 277 277 278 279 279 280 280 281 282 282 281 281 281 281 281 282 283 284

GFSMW_850_thetae_120.txt.gz
Theta_e
314 313 311 310 310 310 310 311 312 313 314 316 318 321 319 326 337 337 337 339 340 338 333 332 338 333 332 337 340 339 337 335 336 336 336 334 334 335 333 333 333 331 331
312 311 310 309 308 308 307 307 309 309 310 312 314 317 320 320 327 335 335 336 339 339 337 335 334 328 328 330 339 340 336 335 335 335 334 335 335 334 333 332 332 332 331
310 308 307 306 305 305 304 305 306 307 307 308 310 312 315 319 319 325 332 335 334 340 338 338 337 335 328 327 328 335 335 335 335 335 335 334 333 333 333 331 332 332 331
307 306 305 303 302 302 302 302 302 303 304 305 307 309 312 314 317 320 322 335 336 335 340 339 339 339 338 337 335 331 329 334 336 336 335 333 330 330 333 333 332 330 330
305 304 302 301 299 298 298 298 298 298 300 302 304 305 307 310 314 317 319 323 330 334 334 333 337 340 339 340 337 336 332 330 333 336 335 335 333 331 332 331 332 332 330
302 301 299 297 296 295 294 294 294 295 296 298 300 301 303 306 310 312 316 320 322 329 333 330 334 333 338 336 340 337 334 331 331 335 335 333 334 334 331 332 331 330 331
299 297 296 294 293 292 292 292 292 292 292 293 296 298 300 302 305 311 313 312 317 323 332 331 331 332 337 339 337 336 332 333 332 332 332 333 333 333 332 331 331 331 331
296 295 294 292 291 290 290 290 290 290 290 292 293 296 301 303 305 309 313 313 312 312 324 330 329 330 332 333 337 335 336 335 336 335 332 332 331 329 327 328 330 330 330
295 293 292 291 289 289 289 289 289 289 291 293 294 297 299 301 304 307 310 314 314 312 314 326 330 329 331 334 336 336 336 338 334 335 333 333 328 331 326 330 329 330 329
294 293 291 290 289 289 289 288 289 289 290 293 294 296 298 301 303 306 309 314 316 313 315 325 327 328 330 330 333 334 332 334 336 332 331 332 330 330 329 330 331 330 329
293 292 290 289 289 289 289 289 289 289 291 293 294 296 298 301 304 307 309 315 318 317 316 324 325 320 324 329 330 332 332 332 334 332 330 334 331 331 332 330 331 330 330
292 290 290 289 289 289 289 289 289 290 290 291 294 296 298 300 304 307 312 318 317 319 327 326 325 316 328 331 330 329 331 331 331 335 334 334 330 331 332 328 328 328 328
290 289 289 288 288 289 289 288 289 289 290 290 292 294 295 299 301 304 313 319 323 323 324 324 325 329 330 332 331 330 332 331 331 331 333 334 334 331 331 330 331 328 328
289 288 288 288 288 288 289 288 289 289 290 290 291 292 292 295 297 299 310 313 317 319 319 321 324 326 327 330 331 331 330 331 332 330 330 331 332 330 328 329 328 327 328
288 287 287 287 287 288 288 289 289 289 289 290 291 290 289 291 295 301 303 305 310 315 311 315 320 322 324 325 329 330 331 330 330 329 328 327 327 329 328 328 323 322 325
287 286 286 286 286 287 287 288 289 289 289 289 289 290 290 290 292 300 300 302 302 301 300 307 310 314 313 314 319 327 328 328 327 327 326 325 326 325 325 325 324 324 322
286 285 285 284 285 285 286 287 287 290 291 291 291 292 292 292 292 295 297 298 296 298 300 300 299 299 300 303 309 315 316 315 318 317 318 319 319 319 320 319 320 320 319
284 283 283 283 284 283 285 286 287 289 289 289 290 292 293 293 294 294 293 298 292 297 297 298 297 298 297 298 300 304 307 301 308 308 311 308 310 312 312 315 315 317 317
282 282 282 281 282 282 283 284 284 284 285 285 286 288 291 293 293 293 294 296 293 294 296 296 298 294 298 297 301 301 300 299 302 299 301 305 305 305 306 307 307 309 311
281 281 281 281 282 282 282 282 283 283 282 282 283 283 284 285 287 289 290 291 292 292 294 292 295 293 294 293 296 296 299 299 300 300 299 301 299 298 300 303 302 302 303
281 281 281 281 281 281 282 282 282 282 282 282 282 283 283 283 283 284 284 285 285 286 286 288 290 290 291 292 293 294 293 293 295 294 295 296 295 296 297 297 297 297 298
281 281 281 281 281 281 282 282 281 281 282 282 283 282 282 282 282 283 284 284 284 284 283 284 284 284 285 287 289 290 290 291 291 291 291 291 291 292 293 295 294 294 295
282 282 281 281 281 281 281 281 282 281 282 282 282 282 283 283 282 282 282 282 283 283 283 282 282 282 283 283 283 284 286 288 288 288 288 289 289 290 290 291 291 291 290
283 282 282 281 281 281 281 281 281 282 282 282 282 282 281 282 282 282 282 281 281 280 280 280 280 280 281 281 281 281 282 282 283 285 286 287 286 286 287 288 288 288 287
282 282 281 281 281 281 280 280 281 281 282 282 281 281 281 281 281 281 280 280 279 279 278 277 278 278 279 278 278 279 279 280 281 282 282 283 283 283 283 283 283 284 285
283 282 281 280 280 280 280 280 280 281 281 281 281 281 281 281 280 280 280 280 279 279 278 278 276 276 276 276 277 278 279 279 279 279 279 279 279 278 279 279 280 280 281

GFSMW_850_thetae_123.txt.gz
Theta_e
309 308 308 308 309 309 308 308 307 307 307 307 308 310 315 317 321 321 332 334 333 334 337 335 335 337 337 340 340 339 339 338 336 335 336 334 334 334 335 333 332 332 332
307 306 305 305 305 305 306 306 307 307 306 307 308 308 310 313 318 321 326 334 334 335 333 333 332 335 334 337 341 339 340 339 338 335 336 336 335 334 334 334 334 332 332
303 303 303 302 302 302 302 303 304 305 304 304 305 306 307 309 310 317 319 321 324 333 332 332 329 330 336 335 337 340 340 339 338 335 334 336 335 334 332 333 334 333 332
301 301 299 299 298 298 299 300 301 301 302 302 302 302 303 305 308 309 314 318 321 327 332 332 331 329 333 334 334 337 340 336 335 337 334 332 330 332 332 332 332 332 332
299 297 296 296 296 297 298 298 299 300 300 300 300 300 300 302 303 308 308 311 317 320 328 331 333 333 332 334 334 332 336 336 330 333 332 335 333 331 329 331 330 332 331
298 297 297 296 296 296 296 296 296 295 297 299 299 298 298 298 300 301 308 309 309 315 320 324 331 332 333 332 333 335 336 334 333 334 334 332 334 333 330 332 331 330 330
295 293 292 291 291 291 291 291 291 293 294 294 296 297 295 295 296 298 304 310 310 308 312 318 323 333 332 331 332 333 334 334 328 331 333 334 334 333 333 331 331 329 329
293 292 291 290 290 289 289 289 289 289 292 292 294 296 297 295 295 299 302 307 311 311 310 311 316 325 332 332 329 330 331 332 325 326 331 334 335 334 334 333 331 331 330
292 291 290 289 289 289 289 289 288 289 290 290 292 294 296 297 297 298 301 306 310 312 313 312 311 314 321 331 330 329 329 330 330 328 326 332 331 333 333 333 331 330 329
291 290 289 289 290 289 289 288 289 289 289 290 291 292 294 296 297 299 302 304 307 311 313 314 313 312 313 321 328 328 328 328 330 328 330 330 333 332 332 332 331 330 329
290 289 289 289 289 289 289 289 289 289 289 289 290 291 293 294 296 299 301 304 306 313 316 316 316 315 316 323 322 327 327 329 330 330 330 332 333 336 333 333 330 328 328
289 289 289 289 289 289 288 288 289 289 288 288 289 290 292 294 295 299 301 305 310 315 315 312 315 316 321 322 324 322 320 317 320 329 331 330 331 333 333 334 330 329 328
288 288 289 289 288 288 288 288 288 288 288 288 288 289 290 292 293 295 299 303 308 310 311 313 316 317 325 322 319 319 320 324 327 331 332 330 329 331 330 331 329 329 328
288 288 289 288 287 288 287 287 288 288 288 288 288 288 289 289 291 293 294 297 302 306 309 314 316 319 321 323 319 318 323 323 327 329 331 331 330 330 329 329 330 329 328
288 287 287 287 286 287 286 287 288 289 289 289 289 289 289 289 288 291 294 296 300 301 302 307 310 313 318 319 320 323 324 324 327 328 329 329 330 330 329 329 329 328 327
285 285 285 285 284 284 286 287 288 289 290 290 291 291 290 291 291 291 291 296 297 295 300 301 300 300 303 304 302 310 308 311 316 320 322 321 324 329 328 328 326 326 326
284 283 283 283 283 283 284 284 284 285 287 289 291 292 292 291 290 291 292 294 298 294 298 297 299 301 300 300 301 301 305 301 305 306 306 309 312 314 319 325 320 320 321
282 282 282 282 282 283 283 283 283 283 283 284 285 288 291 293 292 292 292 289 291 293 292 292 295 297 294 298 300 300 300 300 302 301 300 303 302 304 308 314 312 313 315
281 281 281 281 282 282 282 283 282 282 282 281 283 283 284 285 287 288 288 290 291 292 292 292 293 295 294 296 297 300 299 299 298 300 300 300 299 298 301 307 305 305 304
281 281 281 281 282 282 282 282 282 283 282 281 281 281 282 282 283 283 283 284 284 283 284 286 289 291 292 293 294 294 294 295 292 294 295 296 297 298 298 303 302 303 300
281 281 281 281 282 282 282 283 282 282 282 282 282 282 282 282 282 283 283 283 283 284 284 283 283 284 284 285 286 289 291 291 292 292 292 293 293 294 295 296 294 293 296
281 281 281 281 281 282 282 282 282 282 282 282 282 282 283 283 283 283 283 283 283 283 283 283 282 282 282 281 282 283 284 285 287 288 287 288 290 290 290 291 291 292 292
282 281 281 281 282 282 282 283 282 281 282 282 282 281 282 282 282 283 282 282 282 282 281 282 281 281 281 281 281 280 281 282 282 283 285 286 287 287 288 288 288 289 289
282 282 281 281 281 281 282 282 282 282 281 281 281 281 281 280 280 280 280 280 279 279 278 279 279 279 280 280 279 279 280 280 280 280 281 281 282 282 284 286 286 285 285
282 281 281 281 281 281 281 281 281 282 281 280 280 280 280 279 279 279 279 279 278 277 277 276 277 277 277 276 277 278 278 278 278 279 280 280 280 280 279 279 280 281 282
282 281 281 281 281 281 281 280 279 280 281 281 279 279 279 279 278 278 278 278 278 277 276 276 276 276 276 275 275 276 276 276 277 278 277 276 276 276 276 276 277 277 278

GFSMW_850_thetae_129.txt.gz
Theta_e
300 302 302 303 303 304 304 304 304 305 305 306 306 307 307 307 307 307 307 307 307 306 308 320 324 325 327 327 329 333 334 334 333 334 334 335 334 331 334 334 334 333 332
300 300 301 302 302 302 303 303 304 304 304 304 305 305 306 307 307 307 307 307 307 307 307 309 318 324 329 327 326 332 334 334 333 332 334 335 335 333 333 334 334 334 333
299 299 299 299 299 300 301 302 302 303 304 304 304 304 305 305 306 306 307 307 306 306 307 307 310 319 327 328 323 325 326 333 333 332 332 333 333 334 333 334 334 334 334
297 297 297 297 296 296 297 298 299 300 301 301 302 302 302 304 304 304 305 305 305 306 306 307 307 312 321 325 326 324 324 326 328 330 330 330 328 332 332 333 332 334 333
295 295 295 295 295 295 296 296 296 296 296 297 297 297 298 299 300 301 302 304 303 304 305 306 306 307 312 320 327 325 324 324 325 325 331 329 328 327 329 331 330 331 332
294 294 294 294 294 293 293 293 293 295 294 295 296 296 295 295 296 298 299 301 302 303 304 305 305 306 307 312 323 326 326 324 328 327 331 329 330 329 329 329 330 329 329
293 292 292 293 292 293 292 292 292 293 292 292 292 292 291 292 292 294 295 298 299 299 301 304 304 305 306 308 314 325 325 326 330 329 327 327 328 330 330 329 328 328 328
291 292 292 292 292 292 291 291 290 291 290 290 290 289 289 290 291 292 293 295 298 298 300 301 302 305 306 308 308 313 322 324 326 329 330 330 329 329 330 329 329 327 327
291 292 292 292 291 290 289 288 289 289 289 288 288 287 288 289 290 292 293 294 295 297 298 300 301 303 306 309 309 308 312 317 323 326 329 330 330 329 324 323 323 320 325
291 291 291 290 290 290 290 290 290 289 288 288 288 287 288 288 290 291 293 293 295 297 299 300 304 307 307 309 310 311 310 311 313 318 326 328 327 326 325 324 323 322 325
290 290 290 291 291 290 290 290 289 289 288 288 287 287 287 288 289 290 291 292 294 297 299 302 306 307 307 309 311 313 313 312 311 312 320 326 325 324 326 324 324 323 324
290 290 291 291 291 291 291 291 290 290 289 287 287 287 286 287 288 289 290 292 293 295 298 302 305 308 309 309 310 312 315 315 317 318 320 324 324 325 325 325 322 323 324
290 290 291 290 287 287 290 292 291 291 290 289 288 287 286 286 287 288 290 291 293 294 297 301 304 306 308 309 310 310 311 317 316 318 325 322 321 326 326 326 325 322 323
289 288 286 285 284 284 285 288 289 291 291 290 289 289 287 286 287 289 290 290 291 292 292 293 295 299 301 305 307 310 313 313 316 318 322 324 325 325 326 327 324 322 321
287 285 284 284 283 283 284 284 284 285 289 290 291 290 290 290 290 290 291 292 293 293 293 294 295 294 294 299 302 303 307 311 311 313 314 317 318 320 320 319 320 324 324
284 284 283 283 283 283 283 283 283 283 284 284 284 287 291 293 293 293 294 294 294 293 295 296 295 294 292 295 295 298 300 304 304 304 304 307 308 311 317 317 317 319 323
283 283 283 283 282 282 282 283 283 282 283 284 283 283 283 284 285 287 290 293 293 294 294 293 291 292 293 294 294 294 295 297 297 298 299 301 301 301 304 306 307 308 317
283 283 282 282 282 283 283 283 283 283 283 283 283 283 283 283 283 284 284 284 285 285 285 285 287 289 289 292 294 295 294 295 294 294 294 295 297 298 301 302 305 305 307
282 282 282 282 282 283 283 283 283 283 283 283 282 282 282 282 283 283 283 283 283 283 283 283 283 283 283 285 289 293 293 292 292 293 292 294 292 293 298 299 301 300 300
282 282 282 282 283 283 282 283 283 283 283 282 281 281 281 282 282 282 282 281 282 282 282 282 281 281 281 282 283 284 285 286 288 289 290 290 290 292 294 296 295 295 295
281 282 282 282 282 282 283 283 282 282 282 281 281 281 281 281 281 281 281 282 281 281 281 281 280 280 280 279 280 281 281 282 282 282 283 286 287 290 291 291 291 290 290
281 281 282 282 282 282 282 283 282 281 281 281 281 281 280 280 280 280 280 281 281 281 280 280 280 279 279 278 279 279 279 279 280 280 280 280 281 284 286 287 286 287 288
281 281 281 282 282 282 282 282 281 281 281 281 280 280 280 280 280 280 279 279 279 278 278 278 278 278 278 278 278 278 278 278 278 278 278 279 279 280 281 281 282 284 284
281 281 281 281 281 282 282 282 281 281 281 281 280 279 279 278 279 278 278 278 277 277 277 277 276 276 276 276 277 277 277 277 277 277 277 278 278 278 278 279 279 279 279
281 281 281 281 280 281 281 281 281 280 281 280 279 278 278 277 277 277 276 276 275 276 276 275 275 274 274 273 274 275 275 276 275 276 277 278 278 277 276 276 276 276 276
281 281 281 281 280 280 281 281 281 280 280 280 279 278 278 278 277 276 275 274 274 274 274 274 274 274 273 272 273 273 273 274 275 276 275 275 274 274 274 274 274 274 274

GFSMW_850_thetae_132.txt.gz
Theta_e
300 301 302 302 303 303 304 304 304 304 305 305 306 306 307 307 307 307 307 307 307 306 306 307 307 306 310 321 323 321 326 325 329 332 330 329 330 331 331 330 332 331 330
299 300 301 302 302 302 302 303 303 303 304 304 304 304 304 305 306 306 306 306 306 306 306 306 307 307 307 317 323 325 326 323 321 331 331 331 332 330 332 332 331 332 332
297 298 298 299 300 300 301 301 301 302 302 302 302 303 303 304 304 305 305 305 306 306 306 305 306 307 306 309 322 325 326 324 323 326 328 330 330 331 331 332 332 332 333
297 297 297 297 297 298 298 298 299 299 299 300 300 300 300 301 301 302 303 304 304 305 305 305 305 306 306 306 311 324 328 328 325 324 330 331 330 329 330 331 332 331 332
295 295 296 296 296 296 295 294 294 295 295 295 295 295 296 295 296 297 299 300 302 303 304 303 304 305 305 306 307 315 326 328 324 325 326 326 327 328 330 329 330 331 331
295 295 295 294 294 293 293 293 292 293 292 291 291 289 288 289 290 291 293 296 299 301 301 301 303 304 305 305 305 307 316 326 326 323 324 325 323 322 328 329 328 327 327
294 294 295 294 295 294 293 293 293 293 292 291 290 288 287 288 289 290 291 292 294 296 299 299 299 301 304 304 304 305 313 323 326 325 323 323 324 324 326 328 328 328 327
294 294 294 294 295 294 293 293 293 293 291 290 289 288 287 288 288 290 291 292 293 294 296 298 298 299 301 302 303 304 307 319 324 326 325 324 324 324 326 328 328 329 328
293 294 294 294 293 293 292 292 292 291 290 288 287 287 287 287 287 288 289 291 292 293 295 297 298 299 300 301 303 304 305 309 318 321 324 324 325 322 326 326 327 328 326
292 293 293 293 293 292 292 292 292 291 289 288 286 286 287 286 287 288 289 290 291 293 295 297 299 300 304 305 304 305 307 308 308 311 315 321 323 325 326 327 328 329 323
291 292 292 292 291 292 293 294 293 291 290 288 286 286 286 286 286 287 288 289 290 292 293 296 300 302 304 303 305 306 308 310 311 310 310 312 318 323 326 325 324 326 324
291 291 292 290 289 288 291 293 292 292 291 289 287 287 287 288 286 287 288 288 289 289 291 294 298 301 304 305 306 307 308 309 311 315 313 315 312 315 322 323 323 325 324
291 291 289 287 286 285 285 286 287 291 291 290 290 290 289 287 287 287 288 289 289 288 289 292 294 298 301 304 305 307 309 310 311 313 315 318 320 323 325 323 323 324 324
290 288 286 285 284 284 284 284 284 284 285 288 290 291 290 289 289 289 290 290 289 288 288 289 290 293 296 300 301 302 304 306 308 310 312 315 317 318 319 323 322 323 323
288 286 285 284 284 283 283 283 284 284 283 283 284 286 288 289 290 290 290 291 291 291 292 291 291 291 293 294 296 298 298 299 301 302 302 309 311 315 317 318 319 322 322
286 284 284 283 283 283 282 283 283 283 283 283 283 283 283 284 284 285 286 287 289 289 291 292 292 292 291 293 295 297 296 295 296 297 298 301 304 305 310 314 316 316 317
284 284 283 283 283 283 283 283 283 283 283 283 283 283 283 283 283 283 283 284 284 283 284 287 289 289 290 292 293 295 296 295 293 293 294 295 297 299 301 302 304 307 311
284 283 283 283 283 283 283 283 283 283 283 283 283 283 283 282 282 283 283 282 283 283 283 283 283 283 283 286 290 293 294 294 294 292 292 293 293 294 295 296 297 298 300
283 283 283 283 283 283 283 283 283 283 283 283 283 282 282 282 282 282 282 282 282 282 282 282 282 283 282 282 283 284 284 285 287 288 290 290 291 292 294 295 293 292 292
283 283 283 283 283 283 283 283 283 283 283 283 283 282 281 281 281 281 281 281 281 281 281 281 282 282 282 282 282 283 283 283 283 282 283 284 287 289 290 292 290 291 289
283 282 282 283 283 283 282 283 282 282 281 282 282 282 281 281 281 281 281 281 281 281 281 280 280 280 280 281 281 281 281 280 280 281 280 280 281 282 285 287 287 286 288
282 282 282 282 282 282 282 282 282 281 281 281 282 281 281 281 281 281 281 281 281 281 280 279 279 278 278 278 278 278 278 279 280 279 279 278 279 279 280 281 281 282 283
282 282 282 282 283 282 282 282 281 281 281 281 281 281 281 280 280 280 280 280 279 279 279 279 278 277 276 277 276 276 276 277 277 276 276 278 278 278 279 278 278 279 280
281 281 281 282 282 282 282 281 280 280 280 280 280 280 279 278 278 279 278 279 278 278 277 277 277 276 276 275 275 275 276 276 276 276 277 277 276 276 276 277 277 277 276
281 281 281 281 282 281 281 280 280 279 280 280 280 279 278 278 277 277 277 276 275 276 276 275 275 275 274 273 273 274 275 275 275 276 276 277 277 276 275 275 275 274 275
281 281 280 281 281 281 280 280 280 279 280 280 279 278 278 277 277 276 276 275 274 274 274 274 274 273 272 272 272 272 273 273 274 275 274 273 273 273 273 273 272 272 272

GFSMW_850_thetae_135.txt.gz
Theta_e
300 301 301 302 302 302 303 303 303 304 304 304 305 305 305 305 305 306 306 306 306 306 306 306 306 306 306 306 307 308 311 317 325 328 325 329 330 330 329 329 329 331 329
301 301 301 301 302 302 302 302 302 302 302 302 302 302 303 304 304 304 304 305 305 305 306 306 306 306 306 306 306 307 315 320 321 327 329 329 328 328 329 329 328 329 330
298 299 300 300 300 301 301 301 301 300 300 300 300 300 300 301 302 303 303 303 303 303 304 305 305 305 306 306 306 306 310 321 324 325 324 325 326 327 327 329 329 328 330
298 298 299 299 299 299 299 298 298 298 297 297 297 297 297 297 298 299 301 301 301 302 303 303 304 305 305 306 306 305 306 317 326 326 326 325 325 327 326 327 329 330 329
298 297 297 297 297 296 296 296 296 295 295 295 293 292 290 290 290 292 295 298 299 298 298 301 303 303 303 304 305 306 305 307 321 325 325 325 324 324 325 327 328 331 331
297 297 297 296 296 296 296 296 295 295 294 293 291 289 288 287 288 289 289 290 292 294 295 296 299 300 301 303 305 305 305 305 311 322 325 325 325 325 324 324 324 327 330
296 296 296 297 297 297 296 295 295 294 293 292 290 288 287 287 287 288 289 289 291 292 294 294 296 297 300 300 303 304 304 304 306 317 321 325 326 325 324 323 324 324 324
296 296 296 296 296 296 295 295 295 294 293 291 289 287 287 286 286 287 287 288 289 291 292 293 295 296 298 300 300 300 302 302 304 310 319 322 325 324 324 325 325 324 324
295 295 295 295 295 295 295 295 295 294 293 292 288 287 286 286 285 286 287 288 289 289 291 292 294 296 299 299 299 300 301 303 303 307 316 320 323 324 324 325 325 325 324
294 294 294 294 292 291 294 294 294 294 293 291 288 287 286 286 285 287 287 288 288 288 290 292 294 297 298 300 302 301 302 304 305 305 311 316 320 321 325 324 323 324 324
294 293 293 292 289 287 287 288 290 292 293 292 290 289 288 287 287 287 287 287 288 288 289 291 293 295 298 301 302 302 303 305 307 309 308 309 313 314 321 320 324 323 323
293 293 292 289 286 286 286 286 286 286 291 292 291 290 289 289 288 287 287 287 287 287 288 289 292 294 297 300 302 304 305 306 307 308 310 312 310 313 314 317 323 325 326
291 291 289 287 286 285 285 285 285 284 285 288 291 291 291 291 290 289 288 287 287 288 288 288 290 293 295 296 298 301 304 305 306 307 309 311 313 314 316 318 320 323 323
291 289 286 285 284 285 285 285 284 284 284 284 284 285 288 290 291 291 291 289 289 290 289 290 289 291 293 295 295 297 298 299 301 302 305 307 310 312 315 317 318 319 320
290 287 285 284 284 284 284 284 283 283 284 284 284 283 284 284 285 287 290 291 291 290 290 291 292 292 292 293 295 295 296 296 297 298 297 298 299 304 310 312 315 317 317
289 285 284 284 284 284 283 284 283 283 283 283 283 283 283 283 284 284 284 284 284 285 288 290 291 292 291 293 295 295 295 295 296 296 296 296 296 298 299 300 307 310 314
287 284 284 284 284 284 283 283 283 283 283 283 282 282 282 283 283 283 283 283 283 283 283 283 282 283 285 288 290 293 296 296 293 293 294 294 294 295 296 297 299 302 305
286 284 284 284 284 283 283 283 283 283 283 282 282 282 282 282 282 282 282 281 282 281 281 281 281 281 280 281 282 283 284 285 288 289 290 292 292 293 295 296 297 297 297
285 284 284 284 284 283 283 283 283 283 283 282 282 282 282 282 282 282 281 281 281 281 281 281 280 280 279 280 281 282 282 282 282 283 283 283 285 287 291 294 294 293 292
284 284 283 284 283 283 283 283 283 283 282 282 281 281 281 282 282 281 281 280 280 280 280 280 280 279 280 280 280 281 281 281 282 281 281 280 281 282 283 284 285 288 288
283 283 283 283 283 283 282 282 283 282 281 281 281 281 282 281 281 281 281 280 280 280 280 280 279 279 279 279 279 280 280 279 280 280 279 279 279 280 281 281 281 280 282
283 283 283 283 282 282 282 282 282 281 280 280 281 281 281 281 281 281 280 280 280 280 279 279 278 277 277 277 277 278 277 278 278 277 277 277 278 279 279 279 279 279 280
283 283 282 282 282 282 281 282 282 281 280 280 280 280 280 280 280 280 280 280 280 279 278 277 276 275 275 276 275 275 276 276 276 276 276 276 277 277 278 278 278 279 279
282 282 282 282 283 282 281 281 281 280 280 280 280 280 280 280 280 280 279 279 278 278 277 276 275 275 274 275 275 275 276 275 275 276 276 276 276 276 276 276 276 276 275
282 282 282 282 282 282 281 280 280 279 279 280 280 279 279 279 278 278 277 276 275 275 275 275 274 274 274 273 273 274 274 274 275 275 275 275 275 274 274 273 274 274 274
282 282 281 282 281 281 281 280 280 279 279 279 279 278 278 277 277 276 276 275 275 275 274 274 274 273 273 272 272 272 273 274 274 275 274 273 272 272 271 271 271 271 271